DLH74 EDDF-FACT

Flight info

Callsign DLH74
Flight time N/A
Altitude 33000
Route ANEKI2L/18 ANEKI Y163 NATOR DCT TRA DCT RIPUS DCT GERSA DCT SOSON DCT ODINA DCT PIDAD DCT TALEP DCT VAREK DCT ERPIN DCT ETOIL DCT CIRTA UA605 DJA UB730 DIR UA607 FL UA403 BZ DCT KSA UT943 VEDRY UN185 OKLOK UQ23 DUMDO DCT ERDAS ERDAS1B
Aircraft A388/J-SADE2E3FGHIJ3J4J5M1RWXY/LB1D1

Departure

Time 2026-05-07 22:19
Airport Frankfurt Main Airport (EDDF)

Arrival

Time N/A
Airport Cape Town International Airport (FACT)
Time Latitude Longitude Altitude Speed Heading
2026-05-07 21:30 50.04722 8.56277 368 ft 0 kts 340°
2026-05-07 22:00 50.04719 8.56279 361 ft 1 kts 340°
2026-05-07 22:00 50.04713 8.56283 368 ft 1 kts 340°
2026-05-07 22:00 50.04706 8.56286 367 ft 1 kts 340°
2026-05-07 22:00 50.04700 8.56290 363 ft 1 kts 340°
2026-05-07 22:01 50.04690 8.56296 368 ft 2 kts 340°
2026-05-07 22:01 50.04680 8.56303 367 ft 2 kts 336°
2026-05-07 22:01 50.04669 8.56310 365 ft 2 kts 334°
2026-05-07 22:01 50.04660 8.56320 369 ft 2 kts 322°
2026-05-07 22:02 50.04652 8.56334 368 ft 2 kts 304°
2026-05-07 22:02 50.04650 8.56344 367 ft 1 kts 284°
2026-05-07 22:02 50.04650 8.56351 366 ft 1 kts 271°
2026-05-07 22:02 50.04651 8.56359 368 ft 1 kts 256°
2026-05-07 22:03 50.04652 8.56362 367 ft 0 kts 249°
2026-05-07 22:09 50.04649 8.56352 368 ft 3 kts 249°
2026-05-07 22:09 50.04638 8.56306 361 ft 6 kts 249°
2026-05-07 22:09 50.04619 8.56228 365 ft 9 kts 247°
2026-05-07 22:10 50.04593 8.56126 369 ft 11 kts 250°
2026-05-07 22:10 50.04562 8.56005 364 ft 13 kts 240°
2026-05-07 22:10 50.04489 8.55934 366 ft 13 kts 196°
2026-05-07 22:10 50.04392 8.55914 363 ft 15 kts 175°
2026-05-07 22:11 50.04284 8.55956 362 ft 13 kts 186°
2026-05-07 22:11 50.04216 8.55856 367 ft 15 kts 247°
2026-05-07 22:11 50.04178 8.55693 364 ft 17 kts 252°
2026-05-07 22:11 50.04137 8.55516 364 ft 18 kts 249°
2026-05-07 22:12 50.04091 8.55333 366 ft 18 kts 249°
2026-05-07 22:12 50.04049 8.55149 365 ft 18 kts 251°
2026-05-07 22:12 50.04005 8.54958 365 ft 19 kts 248°
2026-05-07 22:12 50.03956 8.54757 362 ft 21 kts 249°
2026-05-07 22:13 50.03903 8.54538 361 ft 21 kts 249°
2026-05-07 22:13 50.03841 8.54334 357 ft 22 kts 239°
2026-05-07 22:13 50.03775 8.54122 354 ft 22 kts 250°
2026-05-07 22:13 50.03721 8.53896 357 ft 22 kts 249°
2026-05-07 22:14 50.03664 8.53667 354 ft 23 kts 249°
2026-05-07 22:14 50.03607 8.53434 353 ft 23 kts 249°
2026-05-07 22:14 50.03551 8.53198 346 ft 23 kts 249°
2026-05-07 22:14 50.03494 8.52962 347 ft 23 kts 250°
2026-05-07 22:15 50.03437 8.52737 336 ft 20 kts 248°
2026-05-07 22:15 50.03408 8.52632 337 ft 4 kts 230°
2026-05-07 22:15 50.03382 8.52604 338 ft 5 kts 195°
2026-05-07 22:15 50.03363 8.52598 337 ft 0 kts 180°
2026-05-07 22:17 50.03359 8.52598 339 ft 9 kts 180°
2026-05-07 22:18 50.03036 8.52599 336 ft 83 kts 179°
2026-05-07 22:18 50.01127 8.52614 377 ft 173 kts 181°
2026-05-07 22:18 49.99892 8.52579 790 ft 175 kts 181°
2026-05-07 22:19 49.98688 8.52547 1335 ft 171 kts 181°
2026-05-07 22:19 49.97506 8.52413 1652 ft 178 kts 182°
2026-05-07 22:19 49.96230 8.52315 1874 ft 189 kts 180°
2026-05-07 22:19 49.94909 8.52324 2193 ft 193 kts 177°
2026-05-07 22:20 49.93547 8.52417 2430 ft 199 kts 175°
2026-05-07 22:20 49.92134 8.52620 2565 ft 208 kts 173°
2026-05-07 22:20 49.90674 8.52862 2780 ft 213 kts 173°
2026-05-07 22:20 49.89183 8.53119 2976 ft 218 kts 173°
2026-05-07 22:21 49.87659 8.53389 3174 ft 226 kts 173°
2026-05-07 22:21 49.86054 8.53680 3389 ft 245 kts 173°
2026-05-07 22:21 49.84290 8.54003 3627 ft 265 kts 173°
2026-05-07 22:21 49.82438 8.54204 4321 ft 262 kts 179°
2026-05-07 22:22 49.80669 8.54203 5409 ft 246 kts 180°
2026-05-07 22:22 49.78992 8.54202 6341 ft 239 kts 180°
2026-05-07 22:22 49.77291 8.54107 6770 ft 251 kts 188°
2026-05-07 22:22 49.75492 8.53805 7024 ft 270 kts 187°
2026-05-07 22:23 49.73595 8.53533 7520 ft 276 kts 186°
2026-05-07 22:23 49.71675 8.53278 8146 ft 279 kts 186°
2026-05-07 22:23 49.69748 8.53027 8747 ft 282 kts 186°
2026-05-07 22:23 49.67789 8.52771 9370 ft 285 kts 186°
2026-05-07 22:24 49.65797 8.52510 10000 ft 288 kts 186°
2026-05-07 22:24 49.63785 8.52246 10460 ft 295 kts 186°
2026-05-07 22:24 49.61682 8.51965 10618 ft 312 kts 186°
2026-05-07 22:24 49.59460 8.51670 10767 ft 328 kts 186°
2026-05-07 22:25 49.57143 8.51365 11053 ft 338 kts 186°
2026-05-07 22:25 49.54796 8.51058 11580 ft 341 kts 186°
2026-05-07 22:25 49.52420 8.50748 12110 ft 343 kts 186°
2026-05-07 22:25 49.50027 8.50435 12635 ft 346 kts 186°
2026-05-07 22:26 49.47657 8.50124 13168 ft 348 kts 186°
2026-05-07 22:26 49.45234 8.49807 13693 ft 351 kts 186°
2026-05-07 22:26 49.42794 8.49488 14182 ft 353 kts 186°
2026-05-07 22:26 49.40336 8.49167 14655 ft 356 kts 186°
2026-05-07 22:27 49.37864 8.48844 15112 ft 358 kts 186°
2026-05-07 22:27 49.35371 8.48519 15570 ft 360 kts 186°
2026-05-07 22:27 49.32862 8.48192 16025 ft 363 kts 186°
2026-05-07 22:27 49.30343 8.47864 16462 ft 365 kts 186°
2026-05-07 22:28 49.27832 8.47538 16913 ft 368 kts 186°
2026-05-07 22:28 49.25274 8.47206 17356 ft 370 kts 186°
2026-05-07 22:28 49.22701 8.46871 17790 ft 373 kts 186°
2026-05-07 22:28 49.20106 8.46534 18212 ft 375 kts 187°
2026-05-07 22:29 49.17502 8.46195 18612 ft 377 kts 187°
2026-05-07 22:29 49.14885 8.45855 18998 ft 379 kts 187°
2026-05-07 22:29 49.12260 8.45515 19366 ft 380 kts 187°
2026-05-07 22:29 49.09609 8.45172 19748 ft 382 kts 187°
2026-05-07 22:30 49.06954 8.44816 20114 ft 384 kts 188°
2026-05-07 22:30 49.04327 8.44088 20479 ft 384 kts 195°
2026-05-07 22:30 49.01755 8.43158 20825 ft 386 kts 195°
2026-05-07 22:30 48.99141 8.42234 21184 ft 387 kts 194°
2026-05-07 22:31 48.96509 8.41315 21573 ft 389 kts 194°
2026-05-07 22:31 48.93865 8.40397 21906 ft 391 kts 194°
2026-05-07 22:31 48.91206 8.39475 22271 ft 393 kts 194°
2026-05-07 22:31 48.88544 8.38553 22610 ft 394 kts 194°
2026-05-07 22:32 48.85891 8.37635 22966 ft 396 kts 194°
2026-05-07 22:32 48.83170 8.36693 23325 ft 398 kts 194°
2026-05-07 22:32 48.80498 8.35768 23665 ft 400 kts 194°
2026-05-07 22:32 48.77773 8.34824 23960 ft 402 kts 195°
2026-05-07 22:33 48.75055 8.33844 24279 ft 402 kts 195°
2026-05-07 22:33 48.72330 8.32837 24538 ft 404 kts 195°
2026-05-07 22:33 48.69585 8.31823 24811 ft 406 kts 195°
2026-05-07 22:33 48.66833 8.30813 25106 ft 408 kts 195°
2026-05-07 22:34 48.64064 8.29801 25391 ft 410 kts 195°
2026-05-07 22:34 48.61294 8.28792 25701 ft 412 kts 195°
2026-05-07 22:34 48.58505 8.27779 26017 ft 414 kts 195°
2026-05-07 22:34 48.55688 8.26757 26337 ft 416 kts 195°
2026-05-07 22:35 48.52864 8.25738 26658 ft 418 kts 194°
2026-05-07 22:35 48.50018 8.25070 26992 ft 422 kts 187°
2026-05-07 22:35 48.47052 8.24992 27323 ft 427 kts 179°
2026-05-07 22:35 48.44096 8.25518 27639 ft 432 kts 172°
2026-05-07 22:36 48.41117 8.26285 27954 ft 434 kts 173°
2026-05-07 22:36 48.38122 8.27026 28304 ft 437 kts 173°
2026-05-07 22:36 48.35115 8.27756 28640 ft 439 kts 173°
2026-05-07 22:36 48.32085 8.28488 29000 ft 441 kts 174°
2026-05-07 22:37 48.29054 8.29220 29345 ft 443 kts 174°
2026-05-07 22:37 48.26010 8.29954 29660 ft 446 kts 174°
2026-05-07 22:37 48.22937 8.30694 29992 ft 448 kts 174°
2026-05-07 22:37 48.19842 8.31438 30289 ft 451 kts 174°
2026-05-07 22:38 48.16743 8.32183 30599 ft 453 kts 174°
2026-05-07 22:38 48.13616 8.32938 30913 ft 455 kts 174°
2026-05-07 22:38 48.10485 8.33699 31181 ft 457 kts 174°
2026-05-07 22:38 48.07378 8.34453 31479 ft 459 kts 174°
2026-05-07 22:39 48.04208 8.35222 31794 ft 461 kts 174°
2026-05-07 22:39 48.01036 8.35990 32068 ft 463 kts 174°
2026-05-07 22:39 47.97844 8.36760 32357 ft 465 kts 174°
2026-05-07 22:39 47.94638 8.37534 32643 ft 467 kts 174°
2026-05-07 22:40 47.91416 8.38310 32902 ft 469 kts 175°
2026-05-07 22:40 47.88189 8.39086 33139 ft 472 kts 175°
2026-05-07 22:40 47.84937 8.39866 33431 ft 474 kts 175°
2026-05-07 22:40 47.81663 8.40652 33722 ft 476 kts 175°
2026-05-07 22:41 47.78382 8.41438 33998 ft 478 kts 175°
2026-05-07 22:41 47.75135 8.42215 34245 ft 480 kts 175°
2026-05-07 22:41 47.71822 8.43007 34468 ft 482 kts 175°
2026-05-07 22:41 47.68503 8.43774 34700 ft 482 kts 178°
2026-05-07 22:42 47.65167 8.44273 34970 ft 482 kts 179°
2026-05-07 22:42 47.61830 8.44754 35293 ft 482 kts 179°
2026-05-07 22:42 47.58491 8.45243 35602 ft 481 kts 179°
2026-05-07 22:42 47.55153 8.45733 35904 ft 481 kts 179°
2026-05-07 22:43 47.51818 8.46223 36083 ft 484 kts 179°
2026-05-07 22:43 47.45079 8.47213 36072 ft 483 kts 179°
2026-05-07 22:44 47.38399 8.48193 36075 ft 485 kts 179°
2026-05-07 22:44 47.31671 8.49176 36070 ft 486 kts 179°
2026-05-07 22:45 47.24939 8.50157 36068 ft 485 kts 179°
2026-05-07 22:45 47.18216 8.51137 36069 ft 485 kts 179°
2026-05-07 22:46 47.11489 8.52115 36059 ft 486 kts 179°
2026-05-07 22:46 47.04744 8.53092 36064 ft 486 kts 179°
2026-05-07 22:47 46.98049 8.54061 36053 ft 486 kts 179°
2026-05-07 22:47 46.91316 8.55031 36055 ft 486 kts 179°
2026-05-07 22:48 46.84569 8.55998 36037 ft 485 kts 178°
2026-05-07 22:48 46.77878 8.56958 36028 ft 483 kts 178°
2026-05-07 22:49 46.71188 8.57916 36042 ft 483 kts 178°
2026-05-07 22:49 46.64522 8.58871 36022 ft 481 kts 178°
2026-05-07 22:50 46.57861 8.59817 36059 ft 481 kts 178°
2026-05-07 22:50 46.51247 8.60753 36058 ft 481 kts 178°
2026-05-07 22:51 46.44574 8.61697 36060 ft 480 kts 178°
2026-05-07 22:51 46.37922 8.62637 36071 ft 479 kts 178°
2026-05-07 22:52 46.31287 8.63573 36042 ft 479 kts 178°
2026-05-07 22:52 46.24637 8.64507 36051 ft 480 kts 178°
2026-05-07 22:53 46.17999 8.65438 36046 ft 479 kts 179°
2026-05-07 22:53 46.11357 8.66364 36050 ft 479 kts 179°
2026-05-07 22:54 46.04727 8.66627 36058 ft 476 kts 184°
2026-05-07 22:54 45.98144 8.66739 36057 ft 476 kts 184°
2026-05-07 22:55 45.91519 8.66869 36054 ft 476 kts 183°
2026-05-07 22:55 45.84897 8.67001 36050 ft 476 kts 183°
2026-05-07 22:56 45.78266 8.67131 36030 ft 475 kts 184°
2026-05-07 22:56 45.71674 8.67261 36021 ft 475 kts 184°
2026-05-07 22:57 45.65058 8.67391 36016 ft 475 kts 184°
2026-05-07 22:57 45.58456 8.67520 36013 ft 475 kts 184°
2026-05-07 22:58 45.51841 8.67650 36015 ft 475 kts 184°
2026-05-07 22:58 45.45233 8.67778 36020 ft 475 kts 184°
2026-05-07 22:59 45.38660 8.67907 36080 ft 475 kts 184°
2026-05-07 22:59 45.32055 8.68035 36082 ft 475 kts 184°
2026-05-07 23:00 45.25444 8.68163 36073 ft 475 kts 184°
2026-05-07 23:00 45.18858 8.68291 36091 ft 472 kts 184°
2026-05-07 23:01 45.12296 8.68418 36039 ft 471 kts 184°
2026-05-07 23:01 45.05754 8.68543 36032 ft 469 kts 184°
2026-05-07 23:02 44.99235 8.68669 36035 ft 467 kts 184°
2026-05-07 23:02 44.92794 8.68792 36022 ft 465 kts 184°
2026-05-07 23:03 44.86328 8.68915 36007 ft 464 kts 184°
2026-05-07 23:03 44.79881 8.69039 36036 ft 462 kts 185°
2026-05-07 23:04 44.73465 8.69161 36030 ft 461 kts 185°
2026-05-07 23:04 44.67092 8.69281 36022 ft 460 kts 185°
2026-05-07 23:05 44.60683 8.69403 36021 ft 459 kts 185°
2026-05-07 23:05 44.54293 8.69524 36016 ft 459 kts 185°
2026-05-07 23:06 44.48980 8.69622 36014 ft 459 kts 185°
2026-05-07 23:06 44.42596 8.69743 36012 ft 458 kts 185°
2026-05-07 23:07 44.36206 8.69864 36009 ft 459 kts 185°
2026-05-07 23:07 44.29802 8.69983 36018 ft 460 kts 185°
2026-05-07 23:08 44.23408 8.70103 36046 ft 459 kts 185°
2026-05-07 23:08 44.17024 8.70223 36038 ft 459 kts 185°
2026-05-07 23:09 44.10681 8.70341 36033 ft 458 kts 185°
2026-05-07 23:09 44.04310 8.70460 36045 ft 456 kts 185°
2026-05-07 23:10 43.97969 8.70578 36034 ft 455 kts 185°
2026-05-07 23:10 43.91647 8.70695 36023 ft 453 kts 185°
2026-05-07 23:11 43.85348 8.70811 36021 ft 451 kts 185°
2026-05-07 23:11 43.79074 8.70926 36012 ft 450 kts 185°
2026-05-07 23:12 43.72798 8.71041 36001 ft 450 kts 185°
2026-05-07 23:12 43.66549 8.71155 36003 ft 449 kts 185°
2026-05-07 23:13 43.60293 8.71255 35999 ft 449 kts 185°
2026-05-07 23:13 43.54096 8.71241 36003 ft 449 kts 186°
2026-05-07 23:14 43.47895 8.70694 36002 ft 442 kts 194°
2026-05-07 23:14 43.42021 8.68455 36002 ft 436 kts 205°
2026-05-07 23:15 43.36524 8.64942 35995 ft 435 kts 208°
2026-05-07 23:15 43.31054 8.61389 36014 ft 436 kts 208°
2026-05-07 23:16 43.25561 8.57844 36013 ft 435 kts 208°
2026-05-07 23:16 43.20079 8.54313 36011 ft 435 kts 208°
2026-05-07 23:17 43.14596 8.50786 36014 ft 435 kts 208°
2026-05-07 23:17 43.09117 8.47270 35999 ft 435 kts 208°
2026-05-07 23:18 43.03664 8.43776 35998 ft 435 kts 208°
2026-05-07 23:18 42.98188 8.40274 36001 ft 435 kts 208°
2026-05-07 23:19 42.92705 8.36775 35998 ft 435 kts 208°
2026-05-07 23:19 42.87221 8.33281 36001 ft 435 kts 207°
2026-05-07 23:20 42.81731 8.29793 35999 ft 435 kts 207°
2026-05-07 23:20 42.76246 8.26313 35993 ft 435 kts 207°
2026-05-07 23:21 42.70751 8.22834 35970 ft 435 kts 207°
2026-05-07 23:21 42.65254 8.19360 35993 ft 435 kts 207°
2026-05-07 23:22 42.59793 8.15917 35991 ft 435 kts 207°
2026-05-07 23:22 42.54284 8.12449 35995 ft 436 kts 207°
2026-05-07 23:23 42.48783 8.08993 35992 ft 436 kts 207°
2026-05-07 23:23 42.43271 8.05537 35995 ft 436 kts 207°
2026-05-07 23:24 42.37751 8.02083 36002 ft 436 kts 207°
2026-05-07 23:24 42.32237 7.98639 35991 ft 436 kts 207°
2026-05-07 23:25 42.26660 7.95496 36010 ft 437 kts 205°
2026-05-07 23:25 42.21039 7.92401 36005 ft 436 kts 205°
2026-05-07 23:26 42.15417 7.89308 36001 ft 436 kts 205°
2026-05-07 23:26 42.09797 7.86223 35993 ft 435 kts 204°
2026-05-07 23:27 42.01391 7.81621 35987 ft 434 kts 204°
2026-05-07 23:27 41.95791 7.78562 35985 ft 434 kts 204°
2026-05-07 23:28 41.90186 7.75507 35980 ft 434 kts 204°
2026-05-07 23:28 41.84592 7.72463 35986 ft 435 kts 204°
2026-05-07 23:29 41.79005 7.69429 35986 ft 435 kts 204°
2026-05-07 23:29 41.73386 7.66384 35990 ft 436 kts 204°
2026-05-07 23:30 41.67762 7.63341 35993 ft 436 kts 204°
2026-05-07 23:30 41.62121 7.60295 35997 ft 437 kts 204°
2026-05-07 23:31 41.56374 7.57606 36009 ft 439 kts 197°
2026-05-07 23:31 41.50363 7.56055 36002 ft 441 kts 192°
2026-05-07 23:32 41.44340 7.54693 35997 ft 440 kts 193°
2026-05-07 23:32 41.38302 7.53306 35996 ft 440 kts 193°
2026-05-07 23:33 41.32260 7.51919 35993 ft 440 kts 193°
2026-05-07 23:33 41.26221 7.50536 35984 ft 440 kts 193°
2026-05-07 23:34 41.20172 7.49154 35981 ft 440 kts 193°
2026-05-07 23:34 41.14175 7.47786 35983 ft 440 kts 193°
2026-05-07 23:35 41.08130 7.46409 35977 ft 441 kts 192°
2026-05-07 23:35 41.02070 7.45032 35975 ft 441 kts 192°
2026-05-07 23:36 40.96021 7.43660 35980 ft 442 kts 192°
2026-05-07 23:36 40.89945 7.42285 35980 ft 442 kts 192°
2026-05-07 23:37 40.83866 7.40911 35977 ft 443 kts 192°
2026-05-07 23:37 40.77780 7.39538 35979 ft 444 kts 192°
2026-05-07 23:38 40.71726 7.38176 35982 ft 444 kts 192°
2026-05-07 23:38 40.65630 7.36806 35968 ft 444 kts 192°
2026-05-07 23:39 40.59533 7.35438 35978 ft 445 kts 192°
2026-05-07 23:39 40.53416 7.34069 35980 ft 445 kts 192°
2026-05-07 23:40 40.47308 7.32704 35979 ft 445 kts 192°
2026-05-07 23:40 40.41225 7.31347 35980 ft 445 kts 192°
2026-05-07 23:41 40.35116 7.29987 35981 ft 445 kts 192°
2026-05-07 23:41 40.28962 7.28619 35983 ft 445 kts 192°
2026-05-07 23:42 40.22881 7.27270 35964 ft 445 kts 192°
2026-05-07 23:42 40.16761 7.25915 35970 ft 446 kts 192°
2026-05-07 23:43 40.10632 7.24560 35972 ft 446 kts 192°
2026-05-07 23:43 40.04544 7.23217 35977 ft 447 kts 192°
2026-05-07 23:44 39.98408 7.21866 35963 ft 448 kts 192°
2026-05-07 23:44 39.92256 7.20513 35972 ft 448 kts 192°
2026-05-07 23:45 39.86085 7.19159 35975 ft 449 kts 192°
2026-05-07 23:45 39.79919 7.17809 35954 ft 450 kts 192°
2026-05-07 23:46 39.73725 7.16454 35957 ft 452 kts 192°
2026-05-07 23:46 39.67491 7.15247 35965 ft 454 kts 191°
2026-05-07 23:47 39.61216 7.14172 35982 ft 455 kts 191°
2026-05-07 23:47 39.54926 7.13066 35968 ft 456 kts 191°
2026-05-07 23:48 39.48627 7.11943 35973 ft 458 kts 191°
2026-05-07 23:48 39.42295 7.10814 35981 ft 459 kts 191°
2026-05-07 23:49 39.35995 7.09694 35965 ft 460 kts 191°
2026-05-07 23:49 39.29637 7.08566 35955 ft 462 kts 192°
2026-05-07 23:50 39.23254 7.07435 35963 ft 463 kts 192°
2026-05-07 23:50 39.16849 7.06302 35977 ft 465 kts 192°
2026-05-07 23:51 39.11519 7.05362 35968 ft 465 kts 192°
2026-05-07 23:51 39.04035 7.04043 35977 ft 466 kts 192°
2026-05-07 23:52 38.97596 7.02919 35979 ft 467 kts 192°
2026-05-07 23:52 38.91135 7.01877 35960 ft 468 kts 192°
2026-05-07 23:53 38.85710 7.01008 35977 ft 468 kts 193°
2026-05-07 23:53 38.79291 6.99970 35976 ft 468 kts 193°
2026-05-07 23:54 38.72821 6.98922 35991 ft 469 kts 193°
2026-05-07 23:54 38.66349 6.97877 35977 ft 469 kts 193°
2026-05-07 23:55 38.59865 6.96831 35976 ft 469 kts 193°
2026-05-07 23:55 38.53384 6.95788 35973 ft 470 kts 193°
2026-05-07 23:56 38.46889 6.94744 35977 ft 470 kts 193°
2026-05-07 23:56 38.40395 6.93703 35966 ft 470 kts 194°
2026-05-07 23:57 38.33894 6.92662 35967 ft 471 kts 194°
2026-05-07 23:57 38.27424 6.91628 35972 ft 472 kts 194°
2026-05-07 23:58 38.20915 6.90590 35978 ft 472 kts 194°
2026-05-07 23:58 38.14393 6.89551 35978 ft 472 kts 194°
2026-05-07 23:59 38.07869 6.88514 35981 ft 472 kts 194°
2026-05-07 23:59 38.01341 6.87479 35980 ft 472 kts 194°
2026-05-08 00:00 37.94817 6.86447 35968 ft 472 kts 194°
2026-05-08 00:00 37.88306 6.85417 35967 ft 472 kts 194°
2026-05-08 00:01 37.81784 6.84387 35963 ft 472 kts 194°
2026-05-08 00:01 37.75238 6.83355 35897 ft 474 kts 195°
2026-05-08 00:02 37.68672 6.82322 35933 ft 476 kts 195°
2026-05-08 00:02 37.62076 6.81286 35954 ft 479 kts 195°
2026-05-08 00:03 37.55489 6.80254 35975 ft 481 kts 195°
2026-05-08 00:03 37.48835 6.79214 35970 ft 482 kts 195°
2026-05-08 00:04 37.42159 6.78172 35989 ft 483 kts 195°
2026-05-08 00:04 37.35485 6.77133 35989 ft 484 kts 195°
2026-05-08 00:05 37.28789 6.76092 35986 ft 483 kts 195°
2026-05-08 00:05 37.22165 6.75064 35974 ft 482 kts 195°
2026-05-08 00:06 37.15498 6.74030 35972 ft 481 kts 195°
2026-05-08 00:06 37.08860 6.73003 35968 ft 481 kts 195°
2026-05-08 00:07 37.02224 6.71978 35955 ft 479 kts 195°
2026-05-08 00:07 36.95609 6.70958 35956 ft 479 kts 195°
2026-05-08 00:08 36.89009 6.69943 35956 ft 478 kts 195°
2026-05-08 00:08 36.82402 6.68929 35964 ft 478 kts 195°
2026-05-08 00:09 36.75833 6.67922 35960 ft 477 kts 194°
2026-05-08 00:09 36.69227 6.66908 35969 ft 478 kts 194°
2026-05-08 00:10 36.62644 6.65901 35961 ft 477 kts 194°
2026-05-08 00:10 36.56033 6.64893 35951 ft 478 kts 194°
2026-05-08 00:11 36.49447 6.63888 35981 ft 477 kts 194°
2026-05-08 00:11 36.42868 6.62884 35987 ft 476 kts 194°
2026-05-08 00:12 36.36274 6.61883 35995 ft 477 kts 194°
2026-05-08 00:12 36.29643 6.61420 35995 ft 485 kts 185°
2026-05-08 00:13 36.22881 6.62424 35997 ft 495 kts 174°
2026-05-08 00:13 36.16133 6.64203 35989 ft 495 kts 175°
2026-05-08 00:14 36.09394 6.65928 35983 ft 495 kts 175°
2026-05-08 00:14 36.02644 6.67647 35990 ft 494 kts 175°
2026-05-08 00:15 35.95901 6.69361 35985 ft 494 kts 175°
2026-05-08 00:15 35.89210 6.71060 35979 ft 493 kts 175°
2026-05-08 00:16 35.82477 6.72768 35972 ft 493 kts 175°
2026-05-08 00:16 35.75754 6.74469 35969 ft 492 kts 175°
2026-05-08 00:17 35.69048 6.76163 35964 ft 492 kts 175°
2026-05-08 00:17 35.62342 6.77854 35965 ft 492 kts 175°
2026-05-08 00:18 35.55669 6.79533 35938 ft 492 kts 175°
2026-05-08 00:18 35.48955 6.81221 35972 ft 491 kts 175°
2026-05-08 00:19 35.42236 6.82906 35978 ft 492 kts 175°
2026-05-08 00:19 35.35562 6.84578 35973 ft 492 kts 175°
2026-05-08 00:20 35.28818 6.86264 36002 ft 491 kts 175°
2026-05-08 00:20 35.22183 6.87920 35990 ft 489 kts 175°
2026-05-08 00:21 35.15521 6.89581 35967 ft 487 kts 175°
2026-05-08 00:21 35.08877 6.91235 35953 ft 486 kts 175°
2026-05-08 00:22 35.02252 6.92881 35966 ft 483 kts 175°
2026-05-08 00:22 34.95670 6.94514 35950 ft 482 kts 175°
2026-05-08 00:23 34.89123 6.96133 35931 ft 482 kts 175°
2026-05-08 00:23 34.82563 6.97754 35919 ft 481 kts 175°
2026-05-08 00:24 34.75996 6.99388 35915 ft 480 kts 175°
2026-05-08 00:24 34.69457 7.01049 35899 ft 480 kts 175°
2026-05-08 00:25 34.62901 7.02712 35884 ft 480 kts 175°
2026-05-08 00:25 34.56361 7.04363 35889 ft 480 kts 175°
2026-05-08 00:26 34.49853 7.06003 35880 ft 480 kts 175°
2026-05-08 00:26 34.43312 7.07649 35881 ft 480 kts 175°
2026-05-08 00:27 34.36774 7.09290 35872 ft 480 kts 175°
2026-05-08 00:27 34.30232 7.10930 35874 ft 480 kts 175°
2026-05-08 00:28 34.23716 7.12562 35886 ft 479 kts 175°
2026-05-08 00:28 34.17180 7.14196 35875 ft 479 kts 175°
2026-05-08 00:29 34.10651 7.15825 35871 ft 478 kts 175°
2026-05-08 00:29 34.04139 7.17447 35857 ft 477 kts 175°
2026-05-08 00:30 33.97676 7.19056 35865 ft 476 kts 175°
2026-05-08 00:30 33.91190 7.20667 35861 ft 475 kts 175°
2026-05-08 00:31 33.84696 7.22277 35854 ft 475 kts 175°
2026-05-08 00:31 33.78222 7.23880 35852 ft 475 kts 175°
2026-05-08 00:32 33.71736 7.25484 35873 ft 473 kts 176°
2026-05-08 00:32 33.65299 7.27074 35866 ft 472 kts 176°
2026-05-08 00:33 33.58890 7.28653 35857 ft 471 kts 176°
2026-05-08 00:33 33.52477 7.30231 35846 ft 470 kts 176°
2026-05-08 00:34 33.46071 7.31805 35824 ft 470 kts 176°
2026-05-08 00:34 33.39686 7.33373 35859 ft 467 kts 176°
2026-05-08 00:35 33.33316 7.34933 35852 ft 467 kts 176°
2026-05-08 00:35 33.26957 7.36488 35848 ft 466 kts 176°
2026-05-08 00:36 33.20607 7.38039 35841 ft 466 kts 176°
2026-05-08 00:36 33.14254 7.39588 35842 ft 466 kts 176°
2026-05-08 00:37 33.08976 7.40873 35843 ft 466 kts 176°
2026-05-08 00:38 32.99449 7.43189 35847 ft 466 kts 176°
2026-05-08 00:38 32.92041 7.44987 35851 ft 466 kts 176°
2026-05-08 00:39 32.86756 7.46269 35867 ft 466 kts 176°
2026-05-08 00:39 32.80409 7.47805 35861 ft 465 kts 176°
2026-05-08 00:40 32.74058 7.49339 35859 ft 465 kts 176°
2026-05-08 00:40 32.67716 7.50869 35858 ft 465 kts 176°
2026-05-08 00:41 32.61389 7.52395 35864 ft 462 kts 176°
2026-05-08 00:41 32.55091 7.53910 35851 ft 462 kts 176°
2026-05-08 00:42 32.48785 7.55424 35857 ft 461 kts 176°
2026-05-08 00:42 32.42488 7.56935 35847 ft 462 kts 176°
2026-05-08 00:43 32.36201 7.58441 35868 ft 460 kts 177°
2026-05-08 00:43 32.29946 7.59939 35896 ft 457 kts 177°
2026-05-08 00:44 32.23731 7.61424 35879 ft 455 kts 177°
2026-05-08 00:44 32.17571 7.62894 35864 ft 453 kts 177°
2026-05-08 00:45 32.11392 7.64365 35824 ft 452 kts 177°
2026-05-08 00:45 32.05251 7.65826 35843 ft 450 kts 178°
2026-05-08 00:46 31.99108 7.67286 35834 ft 449 kts 178°
2026-05-08 00:46 31.92984 7.68738 35832 ft 449 kts 178°
2026-05-08 00:47 31.86898 7.70179 35835 ft 449 kts 177°
2026-05-08 00:47 31.80766 7.71630 35830 ft 449 kts 178°
2026-05-08 00:48 31.74628 7.73080 35836 ft 451 kts 177°
2026-05-08 00:48 31.68474 7.74567 35849 ft 452 kts 177°
2026-05-08 00:49 31.62289 7.76068 35858 ft 453 kts 177°
2026-05-08 00:49 31.56135 7.77555 35844 ft 454 kts 177°
2026-05-08 00:50 31.49928 7.79052 35863 ft 455 kts 177°
2026-05-08 00:50 31.43717 7.80547 35875 ft 456 kts 177°
2026-05-08 00:51 31.37497 7.82042 35871 ft 456 kts 177°
2026-05-08 00:51 31.31273 7.83536 35874 ft 456 kts 177°
2026-05-08 00:52 31.25065 7.85025 35857 ft 455 kts 178°
2026-05-08 00:52 31.18850 7.86512 35854 ft 455 kts 177°
2026-05-08 00:53 31.12678 7.87988 35866 ft 455 kts 178°
2026-05-08 00:53 31.06468 7.89470 35862 ft 456 kts 178°
2026-05-08 00:54 31.00239 7.90956 35864 ft 456 kts 178°
2026-05-08 00:54 30.94029 7.92435 35850 ft 456 kts 178°
2026-05-08 00:55 30.87818 7.93911 35858 ft 456 kts 178°
2026-05-08 00:55 30.81583 7.95392 35864 ft 457 kts 178°
2026-05-08 00:56 30.75379 7.96864 35866 ft 458 kts 178°
2026-05-08 00:56 30.69126 7.98344 35835 ft 458 kts 178°
2026-05-08 00:57 30.62867 7.99825 35856 ft 460 kts 178°
2026-05-08 00:57 30.56582 8.01309 35865 ft 462 kts 178°
2026-05-08 00:58 30.50266 8.02799 35877 ft 463 kts 178°
2026-05-08 00:58 30.43950 8.04288 35891 ft 464 kts 178°
2026-05-08 00:59 30.37650 8.05771 35898 ft 464 kts 178°
2026-05-08 00:59 30.31314 8.07259 35901 ft 464 kts 178°
2026-05-08 01:00 30.24985 8.08746 35897 ft 463 kts 178°
2026-05-08 01:00 30.18669 8.10226 35894 ft 463 kts 178°
2026-05-08 01:01 30.12364 8.11705 35877 ft 462 kts 178°
2026-05-08 01:01 30.06066 8.13177 35877 ft 461 kts 178°
2026-05-08 01:02 29.99766 8.14665 35881 ft 462 kts 178°
2026-05-08 01:02 29.93461 8.16168 35884 ft 462 kts 178°
2026-05-08 01:03 29.87188 8.17659 35891 ft 463 kts 178°
2026-05-08 01:03 29.80871 8.19156 35883 ft 464 kts 178°
2026-05-08 01:04 29.74527 8.20656 35902 ft 465 kts 178°
2026-05-08 01:04 29.68169 8.22159 35911 ft 466 kts 178°
2026-05-08 01:05 29.61830 8.23656 35918 ft 466 kts 178°
2026-05-08 01:05 29.55466 8.25157 35893 ft 466 kts 178°
2026-05-08 01:06 29.49114 8.26653 35906 ft 466 kts 178°
2026-05-08 01:06 29.42745 8.28151 35906 ft 466 kts 178°
2026-05-08 01:07 29.36391 8.29643 35905 ft 466 kts 178°
2026-05-08 01:07 29.30072 8.31125 35908 ft 466 kts 178°
2026-05-08 01:08 29.23670 8.32625 35892 ft 466 kts 178°
2026-05-08 01:08 29.17303 8.34114 35898 ft 467 kts 178°
2026-05-08 01:09 29.10973 8.35592 35894 ft 467 kts 178°
2026-05-08 01:09 29.04602 8.37079 35901 ft 468 kts 178°
2026-05-08 01:10 28.98196 8.38573 35887 ft 469 kts 178°
2026-05-08 01:10 28.91796 8.40062 35906 ft 470 kts 178°
2026-05-08 01:11 28.85377 8.41554 35908 ft 471 kts 178°
2026-05-08 01:11 28.78943 8.43048 35907 ft 472 kts 178°
2026-05-08 01:12 28.72510 8.44541 35915 ft 472 kts 178°
2026-05-08 01:12 28.66101 8.46025 35913 ft 472 kts 178°
2026-05-08 01:13 28.59652 8.47517 35908 ft 473 kts 178°
2026-05-08 01:13 28.53202 8.49007 35911 ft 473 kts 178°
2026-05-08 01:14 28.46753 8.50496 35906 ft 473 kts 178°
2026-05-08 01:14 28.40282 8.51987 35907 ft 474 kts 178°
2026-05-08 01:15 28.33836 8.53471 35900 ft 473 kts 178°
2026-05-08 01:15 28.27379 8.54954 35898 ft 473 kts 178°
2026-05-08 01:16 28.20928 8.56435 35897 ft 473 kts 178°
2026-05-08 01:16 28.14503 8.57909 35889 ft 473 kts 178°
2026-05-08 01:17 28.08057 8.59386 35880 ft 472 kts 178°
2026-05-08 01:17 28.01615 8.60878 35878 ft 472 kts 178°
2026-05-08 01:18 27.95175 8.62371 35879 ft 472 kts 178°
2026-05-08 01:18 27.88723 8.63864 35879 ft 472 kts 178°
2026-05-08 01:19 27.82276 8.65352 35877 ft 473 kts 178°
2026-05-08 01:19 27.75864 8.66831 35861 ft 473 kts 178°
2026-05-08 01:20 27.69395 8.68321 35868 ft 474 kts 178°
2026-05-08 01:20 27.62926 8.69810 35872 ft 475 kts 178°
2026-05-08 01:21 27.56442 8.71301 35877 ft 475 kts 178°
2026-05-08 01:21 27.49939 8.72793 35865 ft 476 kts 178°
2026-05-08 01:22 27.43473 8.74275 35873 ft 477 kts 178°
2026-05-08 01:22 27.36956 8.75768 35879 ft 478 kts 178°
2026-05-08 01:23 27.30438 8.77259 35887 ft 478 kts 178°
2026-05-08 01:23 27.23904 8.78752 35886 ft 478 kts 178°
2026-05-08 01:24 27.17422 8.80231 35857 ft 479 kts 178°
2026-05-08 01:24 27.10881 8.81721 35864 ft 479 kts 178°
2026-05-08 01:25 27.04326 8.83213 35875 ft 480 kts 178°
2026-05-08 01:25 26.98881 8.84451 35885 ft 481 kts 178°
2026-05-08 01:26 26.92324 8.85952 35911 ft 481 kts 178°
2026-05-08 01:26 26.85761 8.87458 35896 ft 482 kts 178°
2026-05-08 01:27 26.79179 8.88964 35907 ft 483 kts 178°
2026-05-08 01:27 26.72562 8.90476 35911 ft 485 kts 178°
2026-05-08 01:28 26.65987 8.91977 35898 ft 485 kts 178°
2026-05-08 01:28 26.59366 8.93486 35904 ft 486 kts 178°
2026-05-08 01:29 26.52732 8.94997 35894 ft 487 kts 178°
2026-05-08 01:29 26.46074 8.96511 35907 ft 488 kts 178°
2026-05-08 01:30 26.39401 8.98028 35924 ft 489 kts 178°
2026-05-08 01:30 26.32721 8.99543 35934 ft 489 kts 178°
2026-05-08 01:31 26.26087 9.01046 35907 ft 490 kts 178°
2026-05-08 01:31 26.19409 9.02558 35928 ft 490 kts 178°
2026-05-08 01:32 26.12725 9.04069 35931 ft 491 kts 178°
2026-05-08 01:32 26.06022 9.05583 35933 ft 491 kts 178°
2026-05-08 01:33 25.99320 9.07095 35940 ft 491 kts 178°
2026-05-08 01:33 25.92615 9.08616 35921 ft 492 kts 178°
2026-05-08 01:34 25.85883 9.10147 35916 ft 494 kts 178°
2026-05-08 01:34 25.79135 9.11679 35933 ft 495 kts 178°
2026-05-08 01:35 25.72428 9.13198 35944 ft 495 kts 178°
2026-05-08 01:35 25.65666 9.14726 35928 ft 496 kts 177°
2026-05-08 01:36 25.58916 9.16253 35941 ft 497 kts 177°
2026-05-08 01:36 25.52127 9.17785 35948 ft 498 kts 177°
2026-05-08 01:37 25.45320 9.19322 35970 ft 499 kts 177°
2026-05-08 01:37 25.38503 9.20857 35977 ft 500 kts 177°
2026-05-08 01:38 25.31662 9.22395 35961 ft 502 kts 177°
2026-05-08 01:38 25.24806 9.23935 35967 ft 502 kts 177°
2026-05-08 01:39 25.17985 9.25466 35985 ft 503 kts 177°
2026-05-08 01:39 25.11105 9.27009 35984 ft 503 kts 177°
2026-05-08 01:40 25.04239 9.28546 35976 ft 504 kts 177°
2026-05-08 01:40 24.97364 9.30084 35951 ft 504 kts 177°
2026-05-08 01:41 24.90474 9.31623 35953 ft 505 kts 177°
2026-05-08 01:41 24.83571 9.33163 35943 ft 506 kts 177°
2026-05-08 01:42 24.76722 9.34690 35940 ft 506 kts 177°
2026-05-08 01:42 24.69821 9.36228 35906 ft 506 kts 177°
2026-05-08 01:43 24.62917 9.37763 35910 ft 506 kts 177°
2026-05-08 01:43 24.56012 9.39297 35958 ft 506 kts 177°
2026-05-08 01:44 24.49097 9.40831 35979 ft 507 kts 177°
2026-05-08 01:44 24.42195 9.42360 36006 ft 507 kts 177°
2026-05-08 01:45 24.35268 9.43895 36023 ft 507 kts 177°
2026-05-08 01:45 24.28406 9.46077 36024 ft 521 kts 166°
2026-05-08 01:46 24.21913 9.49694 36018 ft 532 kts 156°
2026-05-08 01:46 24.15543 9.53814 35999 ft 532 kts 157°
2026-05-08 01:47 24.09152 9.57906 35975 ft 532 kts 157°
2026-05-08 01:47 24.02747 9.62000 35936 ft 532 kts 157°
2026-05-08 01:48 23.93162 9.68119 35898 ft 532 kts 157°
2026-05-08 01:48 23.86768 9.72195 35911 ft 531 kts 157°
2026-05-08 01:49 23.80381 9.76263 35904 ft 531 kts 157°
2026-05-08 01:49 23.74038 9.80297 35900 ft 531 kts 157°
2026-05-08 01:50 23.67639 9.84363 35879 ft 531 kts 156°
2026-05-08 01:50 23.61281 9.88398 35887 ft 532 kts 156°
2026-05-08 01:51 23.54862 9.92467 35880 ft 532 kts 156°
2026-05-08 01:51 23.48457 9.96523 35882 ft 533 kts 156°
2026-05-08 01:52 23.42043 10.00579 35860 ft 533 kts 156°
2026-05-08 01:52 23.35667 10.04609 35882 ft 532 kts 156°
2026-05-08 01:53 23.29214 10.08680 35870 ft 532 kts 156°
2026-05-08 01:53 23.22855 10.12688 35870 ft 532 kts 156°
2026-05-08 01:54 23.16444 10.16725 35876 ft 532 kts 156°
2026-05-08 01:54 23.10038 10.20754 35864 ft 532 kts 156°
2026-05-08 01:55 23.03631 10.24780 35863 ft 531 kts 156°
2026-05-08 01:55 22.97225 10.28800 35866 ft 531 kts 156°
2026-05-08 01:56 22.90816 10.32817 35869 ft 531 kts 156°
2026-05-08 01:56 22.84412 10.36827 35866 ft 531 kts 156°
2026-05-08 01:57 22.78047 10.40808 35865 ft 531 kts 156°
2026-05-08 01:57 22.71641 10.44810 35857 ft 531 kts 156°
2026-05-08 01:58 22.65234 10.48809 35860 ft 532 kts 156°
2026-05-08 01:58 22.58852 10.52906 35861 ft 534 kts 154°
2026-05-08 01:59 22.52551 10.57192 35865 ft 535 kts 154°
2026-05-08 01:59 22.46231 10.61457 35869 ft 534 kts 154°
2026-05-08 02:00 22.39914 10.65688 35870 ft 534 kts 153°
2026-05-08 02:00 22.33633 10.69886 35866 ft 534 kts 153°
2026-05-08 02:01 22.27305 10.74110 35868 ft 534 kts 153°
2026-05-08 02:01 22.20974 10.78333 35867 ft 534 kts 154°
2026-05-08 02:02 22.14649 10.82547 35864 ft 534 kts 154°
2026-05-08 02:02 22.08315 10.86763 35852 ft 534 kts 153°
2026-05-08 02:03 22.01982 10.90973 35853 ft 534 kts 153°
2026-05-08 02:03 21.95703 10.95143 35851 ft 534 kts 153°
2026-05-08 02:04 21.89363 10.99349 35852 ft 534 kts 153°
2026-05-08 02:04 21.83032 11.03544 35854 ft 535 kts 153°
2026-05-08 02:05 21.76689 11.07744 35856 ft 535 kts 153°
2026-05-08 02:05 21.70345 11.11940 35859 ft 535 kts 153°
2026-05-08 02:06 21.64039 11.16105 35851 ft 535 kts 153°
2026-05-08 02:06 21.57695 11.20292 35845 ft 535 kts 153°
2026-05-08 02:07 21.51343 11.24480 35858 ft 535 kts 153°
2026-05-08 02:07 21.44990 11.28663 35861 ft 535 kts 153°
2026-05-08 02:08 21.38643 11.32839 35852 ft 535 kts 153°
2026-05-08 02:08 21.32295 11.37011 35855 ft 535 kts 153°
2026-05-08 02:09 21.25936 11.41186 35857 ft 535 kts 153°
2026-05-08 02:09 21.19571 11.45360 35858 ft 536 kts 153°
2026-05-08 02:10 21.13249 11.49503 35858 ft 536 kts 153°
2026-05-08 02:10 21.06888 11.53668 35858 ft 536 kts 153°
2026-05-08 02:11 21.00514 11.57837 35857 ft 536 kts 153°
2026-05-08 02:11 20.94156 11.61991 35857 ft 536 kts 153°
2026-05-08 02:12 20.87785 11.66150 35851 ft 536 kts 153°
2026-05-08 02:12 20.82496 11.69598 35846 ft 536 kts 153°
2026-05-08 02:13 20.76126 11.73749 35849 ft 536 kts 153°
2026-05-08 02:13 20.69757 11.77894 35844 ft 536 kts 152°
2026-05-08 02:14 20.63375 11.82045 35851 ft 536 kts 152°
2026-05-08 02:14 20.56998 11.86188 35851 ft 537 kts 152°
2026-05-08 02:15 20.50609 11.90331 35853 ft 537 kts 152°
2026-05-08 02:15 20.44263 11.94443 35849 ft 537 kts 152°
2026-05-08 02:16 20.37877 11.98576 35846 ft 537 kts 152°
2026-05-08 02:16 20.31489 12.02708 35856 ft 536 kts 152°
2026-05-08 02:17 20.25114 12.06826 35848 ft 536 kts 152°
2026-05-08 02:17 20.18734 12.10944 35847 ft 536 kts 152°
2026-05-08 02:18 20.12378 12.15043 35853 ft 536 kts 152°
2026-05-08 02:18 20.05998 12.19152 35853 ft 536 kts 152°
2026-05-08 02:19 19.99615 12.23260 35852 ft 536 kts 152°
2026-05-08 02:19 19.93231 12.27364 35852 ft 536 kts 152°
2026-05-08 02:20 19.86837 12.31472 35855 ft 536 kts 152°
2026-05-08 02:20 19.80440 12.35577 35860 ft 536 kts 152°
2026-05-08 02:21 19.74085 12.39651 35863 ft 536 kts 152°
2026-05-08 02:21 19.67695 12.43744 35854 ft 536 kts 152°
2026-05-08 02:22 19.61317 12.47825 35854 ft 536 kts 152°
2026-05-08 02:22 19.54910 12.51921 35858 ft 536 kts 152°
2026-05-08 02:23 19.48514 12.56006 35860 ft 537 kts 152°
2026-05-08 02:23 19.42125 12.60083 35861 ft 537 kts 152°
2026-05-08 02:24 19.35764 12.64138 35870 ft 537 kts 152°
2026-05-08 02:24 19.29354 12.68221 35888 ft 536 kts 152°
2026-05-08 02:25 19.22959 12.72290 35881 ft 536 kts 152°
2026-05-08 02:25 19.16559 12.76359 35883 ft 536 kts 152°
2026-05-08 02:26 19.10151 12.80429 35875 ft 536 kts 151°
2026-05-08 02:26 19.03747 12.84493 35884 ft 536 kts 151°
2026-05-08 02:27 18.97226 12.88162 35864 ft 533 kts 160°
2026-05-08 02:27 18.90221 12.90643 35859 ft 530 kts 166°
2026-05-08 02:28 18.83183 12.92936 35880 ft 531 kts 166°
2026-05-08 02:28 18.76117 12.95250 35888 ft 531 kts 166°
2026-05-08 02:29 18.69055 12.97556 35885 ft 531 kts 166°
2026-05-08 02:29 18.61999 12.99858 35882 ft 531 kts 166°
2026-05-08 02:30 18.54933 13.02161 35885 ft 531 kts 166°
2026-05-08 02:30 18.47885 13.04456 35882 ft 531 kts 166°
2026-05-08 02:31 18.40829 13.06751 35881 ft 531 kts 166°
2026-05-08 02:31 18.33809 13.09033 35882 ft 531 kts 166°
2026-05-08 02:32 18.26748 13.11326 35887 ft 531 kts 166°
2026-05-08 02:32 18.19692 13.13615 35885 ft 530 kts 165°
2026-05-08 02:33 18.12632 13.15905 35881 ft 530 kts 165°
2026-05-08 02:33 18.05585 13.18188 35882 ft 530 kts 165°
2026-05-08 02:34 17.98530 13.20471 35883 ft 530 kts 165°
2026-05-08 02:34 17.91463 13.22757 35889 ft 530 kts 165°
2026-05-08 02:35 17.84419 13.25033 35888 ft 529 kts 165°
2026-05-08 02:35 17.77421 13.27293 35886 ft 529 kts 165°
2026-05-08 02:36 17.70366 13.29568 35885 ft 529 kts 165°
2026-05-08 02:36 17.63322 13.31839 35881 ft 529 kts 165°
2026-05-08 02:37 17.56304 13.34099 35882 ft 529 kts 165°
2026-05-08 02:37 17.49262 13.36366 35884 ft 529 kts 165°
2026-05-08 02:38 17.42216 13.38631 35880 ft 529 kts 165°
2026-05-08 02:38 17.35165 13.40897 35882 ft 529 kts 165°
2026-05-08 02:39 17.28118 13.43159 35878 ft 529 kts 165°
2026-05-08 02:39 17.21115 13.45405 35888 ft 529 kts 165°
2026-05-08 02:40 17.14067 13.47664 35880 ft 529 kts 165°
2026-05-08 02:40 17.07029 13.49918 35886 ft 529 kts 165°
2026-05-08 02:41 16.99979 13.52174 35880 ft 529 kts 165°
2026-05-08 02:41 16.92927 13.54429 35878 ft 529 kts 165°
2026-05-08 02:42 16.85892 13.56677 35873 ft 529 kts 165°
2026-05-08 02:42 16.78839 13.58928 35875 ft 529 kts 165°
2026-05-08 02:43 16.71836 13.61162 35878 ft 530 kts 165°
2026-05-08 02:43 16.64781 13.63411 35879 ft 530 kts 165°
2026-05-08 02:44 16.57718 13.65660 35870 ft 530 kts 165°
2026-05-08 02:44 16.50671 13.67903 35873 ft 530 kts 165°
2026-05-08 02:45 16.43599 13.70151 35873 ft 531 kts 165°
2026-05-08 02:45 16.36510 13.72404 35875 ft 531 kts 165°
2026-05-08 02:46 16.29469 13.74640 35869 ft 531 kts 165°
2026-05-08 02:46 16.22394 13.76884 35860 ft 532 kts 165°
2026-05-08 02:47 16.15302 13.79133 35864 ft 532 kts 165°
2026-05-08 02:47 16.08207 13.81381 35865 ft 532 kts 165°
2026-05-08 02:48 16.01119 13.83624 35867 ft 533 kts 165°
2026-05-08 02:48 15.94058 13.85858 35874 ft 533 kts 164°
2026-05-08 02:49 15.86963 13.88101 35860 ft 533 kts 164°
2026-05-08 02:49 15.79859 13.90345 35862 ft 534 kts 164°
2026-05-08 02:50 15.72742 13.92591 35862 ft 534 kts 164°
2026-05-08 02:50 15.65641 13.94830 35861 ft 534 kts 164°
2026-05-08 02:51 15.58531 13.97071 35862 ft 534 kts 164°
2026-05-08 02:51 15.51412 13.99313 35870 ft 533 kts 164°
2026-05-08 02:52 15.44304 14.01550 35860 ft 533 kts 164°
2026-05-08 02:52 15.37210 14.03781 35857 ft 533 kts 164°
2026-05-08 02:53 15.30116 14.06010 35854 ft 532 kts 164°
2026-05-08 02:53 15.23030 14.08236 35852 ft 532 kts 164°
2026-05-08 02:54 15.15995 14.10443 35856 ft 531 kts 164°
2026-05-08 02:54 15.08920 14.12662 35853 ft 531 kts 164°
2026-05-08 02:55 14.98310 14.15986 35849 ft 530 kts 164°
2026-05-08 02:56 14.91242 14.18199 35848 ft 530 kts 164°
2026-05-08 02:56 14.84210 14.20399 35846 ft 530 kts 164°
2026-05-08 02:57 14.77157 14.22604 35850 ft 530 kts 164°
2026-05-08 02:57 14.70101 14.24808 35845 ft 530 kts 164°
2026-05-08 02:58 14.63044 14.27011 35847 ft 530 kts 164°
2026-05-08 02:58 14.55989 14.29213 35840 ft 529 kts 164°
2026-05-08 02:59 14.48939 14.31411 35839 ft 529 kts 164°
2026-05-08 02:59 14.41873 14.33612 35843 ft 529 kts 164°
2026-05-08 03:00 14.36007 14.35439 35840 ft 529 kts 164°
2026-05-08 03:00 14.28956 14.37633 35843 ft 529 kts 164°
2026-05-08 03:01 14.21915 14.39823 35844 ft 529 kts 164°
2026-05-08 03:01 14.14849 14.42019 35837 ft 529 kts 164°
2026-05-08 03:02 14.07816 14.44204 35837 ft 529 kts 164°
2026-05-08 03:02 14.00794 14.46384 35831 ft 529 kts 164°
2026-05-08 03:03 13.93739 14.48572 35832 ft 529 kts 164°
2026-05-08 03:03 13.86686 14.50759 35828 ft 529 kts 164°
2026-05-08 03:04 13.79637 14.52942 35829 ft 529 kts 164°
2026-05-08 03:04 13.72575 14.55129 35829 ft 529 kts 164°
2026-05-08 03:05 13.65580 14.57293 35824 ft 528 kts 164°
2026-05-08 03:05 13.58538 14.59471 35826 ft 528 kts 164°
2026-05-08 03:06 13.51493 14.61648 35820 ft 528 kts 164°
2026-05-08 03:06 13.44451 14.63823 35816 ft 528 kts 164°
2026-05-08 03:07 13.37418 14.65994 35821 ft 527 kts 164°
2026-05-08 03:07 13.30390 14.68162 35814 ft 527 kts 164°
2026-05-08 03:08 13.23404 14.70315 35815 ft 527 kts 164°
2026-05-08 03:08 13.16376 14.72481 35811 ft 527 kts 164°
2026-05-08 03:09 13.09352 14.74644 35809 ft 527 kts 164°
2026-05-08 03:09 13.02326 14.76806 35805 ft 527 kts 163°
2026-05-08 03:10 12.95312 14.78963 35805 ft 527 kts 163°
2026-05-08 03:10 12.88272 14.81127 35805 ft 527 kts 163°
2026-05-08 03:11 12.81291 14.83271 35812 ft 528 kts 163°
2026-05-08 03:11 12.74235 14.85437 35820 ft 528 kts 163°
2026-05-08 03:12 12.67190 14.87598 35805 ft 529 kts 163°
2026-05-08 03:12 12.60132 14.89763 35812 ft 529 kts 163°
2026-05-08 03:13 12.53072 14.91927 35823 ft 530 kts 163°
2026-05-08 03:13 12.46046 14.94079 35815 ft 530 kts 163°
2026-05-08 03:14 12.38968 14.96246 35818 ft 530 kts 163°
2026-05-08 03:14 12.31895 14.98410 35819 ft 530 kts 163°
2026-05-08 03:15 12.24818 15.00574 35810 ft 531 kts 163°
2026-05-08 03:15 12.17743 15.02736 35805 ft 530 kts 163°
2026-05-08 03:16 12.10555 15.04204 35804 ft 530 kts 175°
2026-05-08 03:16 12.03210 15.04880 35804 ft 530 kts 175°
2026-05-08 03:17 11.95855 15.05592 35810 ft 530 kts 175°
2026-05-08 03:17 11.88521 15.06301 35822 ft 529 kts 175°
2026-05-08 03:18 11.81178 15.07008 35822 ft 529 kts 175°
2026-05-08 03:18 11.73853 15.07712 35816 ft 529 kts 175°
2026-05-08 03:19 11.66520 15.08417 35821 ft 529 kts 175°
2026-05-08 03:19 11.59193 15.09121 35815 ft 529 kts 174°
2026-05-08 03:20 11.51871 15.09824 35817 ft 529 kts 174°
2026-05-08 03:20 11.44534 15.10528 35815 ft 530 kts 174°
2026-05-08 03:21 11.37236 15.11228 35821 ft 530 kts 174°
2026-05-08 03:21 11.29877 15.11934 35823 ft 530 kts 174°
2026-05-08 03:22 11.22535 15.12637 35824 ft 530 kts 174°
2026-05-08 03:22 11.15225 15.13337 35822 ft 530 kts 174°
2026-05-08 03:23 11.07880 15.14041 35820 ft 530 kts 174°
2026-05-08 03:23 11.00525 15.14744 35821 ft 530 kts 174°
2026-05-08 03:24 10.93186 15.15446 35824 ft 530 kts 174°
2026-05-08 03:24 10.85845 15.16148 35824 ft 530 kts 174°
2026-05-08 03:25 10.78508 15.16849 35823 ft 529 kts 174°
2026-05-08 03:25 10.71159 15.17551 35822 ft 529 kts 174°
2026-05-08 03:26 10.63810 15.18252 35822 ft 529 kts 174°
2026-05-08 03:26 10.56477 15.18951 35821 ft 529 kts 174°
2026-05-08 03:27 10.49141 15.19651 35827 ft 529 kts 174°
2026-05-08 03:27 10.41848 15.20346 35827 ft 530 kts 174°
2026-05-08 03:28 10.34491 15.21047 35833 ft 530 kts 174°
2026-05-08 03:28 10.27157 15.21745 35836 ft 530 kts 174°
2026-05-08 03:29 10.19803 15.22444 35842 ft 530 kts 174°
2026-05-08 03:29 10.12506 15.23139 35845 ft 529 kts 174°
2026-05-08 03:30 10.01487 15.24187 35847 ft 529 kts 174°
2026-05-08 03:31 9.86886 15.25574 35843 ft 528 kts 174°
2026-05-08 03:32 9.75906 15.26617 35851 ft 528 kts 174°
2026-05-08 03:32 9.68598 15.27311 35851 ft 527 kts 174°
2026-05-08 03:33 9.61285 15.28004 35852 ft 527 kts 174°
2026-05-08 03:33 9.53960 15.28699 35853 ft 527 kts 174°
2026-05-08 03:34 9.46705 15.29387 35868 ft 527 kts 174°
2026-05-08 03:34 9.39411 15.30078 35863 ft 526 kts 174°
2026-05-08 03:35 9.32128 15.30767 35863 ft 526 kts 174°
2026-05-08 03:35 9.24844 15.31456 35860 ft 525 kts 174°
2026-05-08 03:36 9.17550 15.32146 35858 ft 525 kts 174°
2026-05-08 03:36 9.10268 15.32834 35874 ft 524 kts 174°
2026-05-08 03:37 9.03008 15.33520 35867 ft 524 kts 174°
2026-05-08 03:37 8.95756 15.34205 35862 ft 523 kts 174°
2026-05-08 03:38 8.88546 15.34885 35858 ft 523 kts 174°
2026-05-08 03:38 8.81307 15.35568 35854 ft 523 kts 174°
2026-05-08 03:39 8.74059 15.36251 35873 ft 522 kts 173°
2026-05-08 03:39 8.66829 15.36933 35867 ft 521 kts 173°
2026-05-08 03:40 8.59599 15.37615 35861 ft 520 kts 173°
2026-05-08 03:40 8.52429 15.38290 35858 ft 520 kts 173°
2026-05-08 03:41 8.45227 15.38969 35856 ft 520 kts 173°
2026-05-08 03:41 8.38007 15.39648 35851 ft 519 kts 173°
2026-05-08 03:42 8.30793 15.40327 35855 ft 520 kts 173°
2026-05-08 03:42 8.23594 15.41004 35858 ft 520 kts 173°
2026-05-08 03:43 8.16437 15.41678 35861 ft 520 kts 173°
2026-05-08 03:43 8.09231 15.42355 35865 ft 520 kts 173°
2026-05-08 03:44 8.02019 15.43032 35893 ft 520 kts 173°
2026-05-08 03:44 7.94819 15.43709 35886 ft 519 kts 173°
2026-05-08 03:45 7.87638 15.44384 35885 ft 518 kts 173°
2026-05-08 03:45 7.80496 15.45054 35879 ft 517 kts 173°
2026-05-08 03:46 7.73321 15.45728 35883 ft 517 kts 173°
2026-05-08 03:46 7.66144 15.46402 35891 ft 516 kts 173°
2026-05-08 03:47 7.58977 15.47074 35900 ft 516 kts 173°
2026-05-08 03:47 7.51864 15.47741 35897 ft 516 kts 173°
2026-05-08 03:48 7.44717 15.48412 35909 ft 516 kts 173°
2026-05-08 03:48 7.37570 15.49081 35915 ft 516 kts 173°
2026-05-08 03:49 7.31611 15.49640 35936 ft 516 kts 173°
2026-05-08 03:49 7.24468 15.50309 35933 ft 517 kts 173°
2026-05-08 03:50 7.17305 15.50980 35940 ft 517 kts 173°
2026-05-08 03:50 7.10135 15.51651 35939 ft 517 kts 173°
2026-05-08 03:51 7.02969 15.52321 35949 ft 517 kts 173°
2026-05-08 03:51 6.95792 15.52993 35948 ft 517 kts 173°
2026-05-08 03:52 6.88627 15.53663 35949 ft 517 kts 173°
2026-05-08 03:52 6.81465 15.54332 35961 ft 517 kts 173°
2026-05-08 03:53 6.74357 15.54995 35964 ft 517 kts 173°
2026-05-08 03:53 6.67185 15.55664 35966 ft 517 kts 173°
2026-05-08 03:54 6.60011 15.56334 35965 ft 517 kts 173°
2026-05-08 03:54 6.52890 15.56998 35972 ft 516 kts 173°
2026-05-08 03:55 6.45745 15.57665 35977 ft 516 kts 173°
2026-05-08 03:55 6.38590 15.58332 35971 ft 516 kts 173°
2026-05-08 03:56 6.31421 15.59000 35968 ft 516 kts 173°
2026-05-08 03:56 6.24311 15.59662 35967 ft 516 kts 173°
2026-05-08 03:57 6.17164 15.60328 35969 ft 515 kts 173°
2026-05-08 03:57 6.10018 15.60994 35965 ft 515 kts 173°
2026-05-08 03:58 6.02876 15.61659 35962 ft 515 kts 173°
2026-05-08 03:58 5.95735 15.62324 35956 ft 515 kts 173°
2026-05-08 03:59 5.88596 15.62988 35956 ft 515 kts 173°
2026-05-08 03:59 5.81499 15.63648 35954 ft 514 kts 173°
2026-05-08 04:00 5.74380 15.64310 35948 ft 514 kts 173°
2026-05-08 04:00 5.67246 15.64974 35950 ft 514 kts 173°
2026-05-08 04:01 5.60127 15.65636 35948 ft 513 kts 173°
2026-05-08 04:01 5.53062 15.66293 35942 ft 513 kts 173°
2026-05-08 04:02 5.45960 15.66955 35952 ft 512 kts 173°
2026-05-08 04:02 5.38853 15.67618 35943 ft 511 kts 173°
2026-05-08 04:03 5.31765 15.68278 35940 ft 511 kts 173°
2026-05-08 04:03 5.21140 15.69268 35933 ft 511 kts 173°
2026-05-08 04:04 5.14067 15.69927 35929 ft 510 kts 173°
2026-05-08 04:04 5.06996 15.70585 35938 ft 510 kts 173°
2026-05-08 04:05 4.99964 15.71240 35941 ft 510 kts 173°
2026-05-08 04:05 4.92888 15.71898 35940 ft 510 kts 173°
2026-05-08 04:06 4.85812 15.72557 35937 ft 510 kts 173°
2026-05-08 04:06 4.78731 15.73215 35939 ft 510 kts 173°
2026-05-08 04:07 4.71665 15.73869 35940 ft 510 kts 173°
2026-05-08 04:07 4.64587 15.74526 35941 ft 510 kts 173°
2026-05-08 04:08 4.57511 15.75181 35938 ft 510 kts 173°
2026-05-08 04:08 4.50484 15.75832 35936 ft 510 kts 173°
2026-05-08 04:09 4.43412 15.76488 35935 ft 510 kts 173°
2026-05-08 04:09 4.36353 15.77141 35942 ft 509 kts 173°
2026-05-08 04:10 4.29295 15.77795 35940 ft 508 kts 173°
2026-05-08 04:10 4.22239 15.78315 35928 ft 509 kts 178°
2026-05-08 04:11 4.15200 15.78008 35925 ft 509 kts 181°
2026-05-08 04:11 4.08132 15.77667 35923 ft 509 kts 181°
2026-05-08 04:12 4.01056 15.77330 35931 ft 508 kts 181°
2026-05-08 04:12 3.93976 15.76989 35927 ft 508 kts 181°
2026-05-08 04:13 3.86912 15.76648 35930 ft 508 kts 181°
2026-05-08 04:13 3.79851 15.76307 35929 ft 508 kts 181°
2026-05-08 04:14 3.72781 15.75966 35928 ft 508 kts 181°
2026-05-08 04:14 3.65761 15.75628 35943 ft 508 kts 181°
2026-05-08 04:15 3.58693 15.75286 35943 ft 508 kts 181°
2026-05-08 04:15 3.51632 15.74946 35941 ft 508 kts 181°
2026-05-08 04:16 3.44567 15.74606 35937 ft 507 kts 181°
2026-05-08 04:16 3.37523 15.74267 35936 ft 507 kts 181°
2026-05-08 04:17 3.30513 15.73929 35934 ft 507 kts 181°
2026-05-08 04:17 3.23458 15.73589 35934 ft 507 kts 181°
2026-05-08 04:18 3.16408 15.73250 35930 ft 507 kts 181°
2026-05-08 04:18 3.09360 15.72911 35931 ft 507 kts 181°
2026-05-08 04:19 3.02301 15.72571 35930 ft 507 kts 181°
2026-05-08 04:19 2.95253 15.72231 35930 ft 507 kts 181°
2026-05-08 04:20 2.88197 15.71891 35935 ft 507 kts 181°
2026-05-08 04:20 2.81144 15.71552 35934 ft 507 kts 181°
2026-05-08 04:21 2.74084 15.71212 35931 ft 507 kts 181°
2026-05-08 04:21 2.67023 15.70872 35931 ft 507 kts 181°
2026-05-08 04:22 2.59971 15.70532 35929 ft 507 kts 181°
2026-05-08 04:22 2.52919 15.70192 35927 ft 507 kts 181°
2026-05-08 04:23 2.45866 15.69852 35925 ft 507 kts 181°
2026-05-08 04:23 2.38855 15.69514 35924 ft 507 kts 181°
2026-05-08 04:24 2.31791 15.69174 35926 ft 507 kts 181°
2026-05-08 04:24 2.24732 15.68834 35928 ft 507 kts 181°
2026-05-08 04:25 2.17661 15.68494 35921 ft 508 kts 182°
2026-05-08 04:25 2.10628 15.68155 35925 ft 508 kts 182°
2026-05-08 04:26 2.03567 15.67815 35927 ft 508 kts 182°
2026-05-08 04:26 1.96530 15.67476 35928 ft 508 kts 182°
2026-05-08 04:27 1.89468 15.67137 35926 ft 508 kts 182°
2026-05-08 04:27 1.82386 15.66796 35928 ft 508 kts 182°
2026-05-08 04:28 1.75311 15.66455 35931 ft 508 kts 182°
2026-05-08 04:28 1.68249 15.66115 35929 ft 508 kts 182°
2026-05-08 04:29 1.61197 15.65776 35928 ft 507 kts 182°
2026-05-08 04:29 1.54136 15.65436 35927 ft 507 kts 182°
2026-05-08 04:30 1.47121 15.65099 35927 ft 507 kts 182°
2026-05-08 04:30 1.40078 15.64760 35934 ft 507 kts 182°
2026-05-08 04:31 1.33025 15.64421 35931 ft 507 kts 182°
2026-05-08 04:31 1.25976 15.64081 35918 ft 507 kts 182°
2026-05-08 04:32 1.18923 15.63742 35921 ft 507 kts 182°
2026-05-08 04:32 1.11870 15.63403 35925 ft 508 kts 182°
2026-05-08 04:33 1.04816 15.63064 35937 ft 507 kts 182°
2026-05-08 04:33 0.97753 15.62724 35935 ft 507 kts 182°
2026-05-08 04:34 0.90740 15.62386 35931 ft 507 kts 182°
2026-05-08 04:34 0.83687 15.62047 35932 ft 507 kts 182°
2026-05-08 04:35 0.76639 15.61708 35928 ft 507 kts 182°
2026-05-08 04:35 0.69590 15.61369 35936 ft 506 kts 182°
2026-05-08 04:36 0.63746 15.61088 35930 ft 506 kts 182°
2026-05-08 04:36 0.56713 15.60750 35923 ft 505 kts 182°
2026-05-08 04:37 0.49687 15.60412 35924 ft 505 kts 182°
2026-05-08 04:37 0.42682 15.60075 35920 ft 505 kts 182°
2026-05-08 04:38 0.35665 15.59738 35917 ft 504 kts 182°
2026-05-08 04:38 0.28657 15.59401 35925 ft 504 kts 182°
2026-05-08 04:39 0.21695 15.59066 35925 ft 504 kts 182°
2026-05-08 04:39 0.14694 15.58729 35922 ft 504 kts 182°
2026-05-08 04:40 0.07688 15.58392 35917 ft 504 kts 182°
2026-05-08 04:40 0.00680 15.58055 35924 ft 504 kts 182°
2026-05-08 04:41 -0.06315 15.57664 35926 ft 503 kts 184°
2026-05-08 04:41 -0.13295 15.57110 35925 ft 503 kts 184°
2026-05-08 04:42 -0.20281 15.56567 35926 ft 503 kts 184°
2026-05-08 04:42 -0.27254 15.56043 35926 ft 503 kts 184°
2026-05-08 04:43 -0.34196 15.55525 35925 ft 503 kts 184°
2026-05-08 04:43 -0.41178 15.55004 35924 ft 503 kts 184°
2026-05-08 04:44 -0.48168 15.54482 35927 ft 503 kts 184°
2026-05-08 04:44 -0.55151 15.53960 35927 ft 503 kts 184°
2026-05-08 04:45 -0.62126 15.53439 35928 ft 503 kts 184°
2026-05-08 04:45 -0.69120 15.52917 35927 ft 503 kts 184°
2026-05-08 04:46 -0.76051 15.52399 35937 ft 503 kts 183°
2026-05-08 04:46 -0.83039 15.51877 35935 ft 503 kts 183°
2026-05-08 04:47 -0.90013 15.51356 35930 ft 503 kts 183°
2026-05-08 04:47 -0.96988 15.50835 35930 ft 503 kts 183°
2026-05-08 04:48 -1.03965 15.50314 35933 ft 503 kts 183°
2026-05-08 04:48 -1.10946 15.49792 35931 ft 503 kts 183°
2026-05-08 04:49 -1.17926 15.49270 35934 ft 503 kts 183°
2026-05-08 04:49 -1.24865 15.48754 35936 ft 503 kts 183°
2026-05-08 04:50 -1.31864 15.48233 35935 ft 503 kts 183°
2026-05-08 04:50 -1.38851 15.47713 35942 ft 503 kts 183°
2026-05-08 04:51 -1.45846 15.47192 35943 ft 503 kts 183°
2026-05-08 04:51 -1.52805 15.46674 35938 ft 504 kts 183°
2026-05-08 04:52 -1.59801 15.46153 35943 ft 505 kts 183°
2026-05-08 04:52 -1.66816 15.45630 35950 ft 505 kts 183°
2026-05-08 04:53 -1.73815 15.45110 35950 ft 505 kts 183°
2026-05-08 04:53 -1.80832 15.44587 35957 ft 505 kts 183°
2026-05-08 04:54 -1.87837 15.44034 35958 ft 505 kts 184°
2026-05-08 04:54 -1.94859 15.43454 35960 ft 505 kts 184°
2026-05-08 04:55 -2.01852 15.42883 35957 ft 505 kts 184°
2026-05-08 04:55 -2.08813 15.42318 35965 ft 504 kts 184°
2026-05-08 04:56 -2.15826 15.41749 35965 ft 504 kts 184°
2026-05-08 04:56 -2.22830 15.41181 35963 ft 505 kts 184°
2026-05-08 04:57 -2.29793 15.40615 35957 ft 505 kts 184°
2026-05-08 04:57 -2.36823 15.40044 35968 ft 505 kts 184°
2026-05-08 04:58 -2.43834 15.39474 35970 ft 505 kts 184°
2026-05-08 04:58 -2.50850 15.38904 35977 ft 506 kts 184°
2026-05-08 04:59 -2.57871 15.38334 35981 ft 506 kts 184°
2026-05-08 04:59 -2.64850 15.37767 35978 ft 506 kts 184°
2026-05-08 05:00 -2.71888 15.37195 35977 ft 506 kts 184°
2026-05-08 05:00 -2.78916 15.36624 35978 ft 507 kts 184°
2026-05-08 05:01 -2.85945 15.36053 35978 ft 507 kts 184°
2026-05-08 05:01 -2.92977 15.35481 35978 ft 507 kts 184°
2026-05-08 05:02 -2.99982 15.34912 35982 ft 506 kts 184°
2026-05-08 05:02 -3.06998 15.34341 35979 ft 506 kts 184°
2026-05-08 05:03 -3.14022 15.33770 35978 ft 506 kts 184°
2026-05-08 05:03 -3.21041 15.33199 35973 ft 505 kts 184°
2026-05-08 05:04 -3.28009 15.32632 35979 ft 505 kts 184°
2026-05-08 05:04 -3.35029 15.32061 35968 ft 506 kts 184°
2026-05-08 05:05 -3.42054 15.31489 35976 ft 506 kts 184°
2026-05-08 05:05 -3.49084 15.30917 35981 ft 507 kts 184°
2026-05-08 05:06 -3.56125 15.30344 35991 ft 508 kts 184°
2026-05-08 05:06 -3.63182 15.29770 35996 ft 508 kts 184°
2026-05-08 05:07 -3.70230 15.29196 35992 ft 509 kts 184°
2026-05-08 05:07 -3.77288 15.28621 35985 ft 509 kts 184°
2026-05-08 05:08 -3.84319 15.28049 35988 ft 509 kts 184°
2026-05-08 05:08 -3.91393 15.27472 35991 ft 510 kts 184°
2026-05-08 05:09 -3.98471 15.26896 35988 ft 510 kts 184°
2026-05-08 05:09 -4.05546 15.26319 35987 ft 510 kts 184°
2026-05-08 05:10 -4.16122 15.25482 35976 ft 509 kts 180°
2026-05-08 05:11 -4.23073 15.26517 35969 ft 507 kts 160°
2026-05-08 05:11 -4.29246 15.29856 35960 ft 503 kts 140°
2026-05-08 05:12 -4.34096 15.34886 35933 ft 502 kts 130°
2026-05-08 05:12 -4.39241 15.39578 35931 ft 504 kts 147°
2026-05-08 05:13 -4.45695 15.42297 35935 ft 506 kts 167°
2026-05-08 05:13 -4.52639 15.43165 35940 ft 507 kts 173°
2026-05-08 05:14 -4.59686 15.43922 35945 ft 508 kts 173°
2026-05-08 05:14 -4.66684 15.44675 35949 ft 508 kts 173°
2026-05-08 05:15 -4.73720 15.45427 35955 ft 508 kts 173°
2026-05-08 05:15 -4.80749 15.46177 35939 ft 509 kts 173°
2026-05-08 05:16 -4.87819 15.46932 35957 ft 509 kts 173°
2026-05-08 05:16 -4.94828 15.47681 35960 ft 510 kts 173°
2026-05-08 05:17 -5.01897 15.48436 35967 ft 510 kts 173°
2026-05-08 05:17 -5.08971 15.49192 35967 ft 510 kts 173°
2026-05-08 05:18 -5.15986 15.49942 35959 ft 510 kts 173°
2026-05-08 05:18 -5.23059 15.50698 35962 ft 511 kts 173°
2026-05-08 05:19 -5.30137 15.51455 35970 ft 511 kts 173°
2026-05-08 05:19 -5.37213 15.52212 35971 ft 511 kts 173°
2026-05-08 05:20 -5.44282 15.52968 35977 ft 511 kts 173°
2026-05-08 05:20 -5.51353 15.53724 35978 ft 511 kts 173°
2026-05-08 05:21 -5.58422 15.54481 35984 ft 510 kts 173°
2026-05-08 05:21 -5.65442 15.55233 35979 ft 510 kts 173°
2026-05-08 05:22 -5.72505 15.55989 35984 ft 509 kts 173°
2026-05-08 05:22 -5.79561 15.56745 35980 ft 509 kts 173°
2026-05-08 05:23 -5.86613 15.57501 35977 ft 509 kts 173°
2026-05-08 05:23 -5.93638 15.58255 35986 ft 508 kts 173°
2026-05-08 05:24 -6.00667 15.59011 35980 ft 507 kts 173°
2026-05-08 05:24 -6.07678 15.59764 35978 ft 507 kts 173°
2026-05-08 05:25 -6.13514 15.60392 35974 ft 507 kts 173°
2026-05-08 05:25 -6.21656 15.61267 35979 ft 506 kts 173°
2026-05-08 05:26 -6.27541 15.61900 35979 ft 506 kts 174°
2026-05-08 05:26 -6.34502 15.62649 35987 ft 507 kts 174°
2026-05-08 05:27 -6.41515 15.63403 35986 ft 507 kts 174°
2026-05-08 05:27 -6.48552 15.64160 35992 ft 507 kts 174°
2026-05-08 05:28 -6.55577 15.64917 35992 ft 507 kts 174°
2026-05-08 05:28 -6.62554 15.65669 35995 ft 507 kts 174°
2026-05-08 05:29 -6.69591 15.66426 35998 ft 508 kts 174°
2026-05-08 05:29 -6.76631 15.67185 36003 ft 508 kts 174°
2026-05-08 05:30 -6.83661 15.67943 36002 ft 508 kts 174°
2026-05-08 05:30 -6.90662 15.68697 36009 ft 508 kts 174°
2026-05-08 05:31 -6.97715 15.69459 36011 ft 508 kts 174°
2026-05-08 05:31 -7.04747 15.70217 36011 ft 508 kts 174°
2026-05-08 05:32 -7.11786 15.70977 36010 ft 508 kts 174°
2026-05-08 05:32 -7.18773 15.71731 36012 ft 508 kts 174°
2026-05-08 05:33 -7.25788 15.72488 36012 ft 508 kts 174°
2026-05-08 05:33 -7.32826 15.73249 36004 ft 508 kts 174°
2026-05-08 05:34 -7.39857 15.74008 36011 ft 507 kts 174°
2026-05-08 05:34 -7.46877 15.74767 36009 ft 507 kts 174°
2026-05-08 05:35 -7.53900 15.75526 36008 ft 507 kts 174°
2026-05-08 05:35 -7.60872 15.76280 36014 ft 507 kts 174°
2026-05-08 05:36 -7.67894 15.77040 36013 ft 507 kts 174°
2026-05-08 05:36 -7.74926 15.77799 36014 ft 507 kts 174°
2026-05-08 05:37 -7.81947 15.78556 36009 ft 507 kts 174°
2026-05-08 05:37 -7.88964 15.79313 36012 ft 507 kts 174°
2026-05-08 05:38 -7.95987 15.80072 36014 ft 507 kts 174°
2026-05-08 05:38 -8.02961 15.80825 36014 ft 507 kts 174°
2026-05-08 05:39 -8.09983 15.81587 36023 ft 507 kts 174°
2026-05-08 05:39 -8.16990 15.82353 36018 ft 506 kts 174°
2026-05-08 05:40 -8.24002 15.83118 36018 ft 506 kts 174°
2026-05-08 05:40 -8.31006 15.83882 36016 ft 506 kts 174°
2026-05-08 05:41 -8.37960 15.84642 36016 ft 506 kts 174°
2026-05-08 05:41 -8.44961 15.85402 36017 ft 506 kts 175°
2026-05-08 05:42 -8.51973 15.86163 36018 ft 506 kts 175°
2026-05-08 05:42 -8.58944 15.86920 36018 ft 506 kts 175°
2026-05-08 05:43 -8.65944 15.87680 36020 ft 506 kts 175°
2026-05-08 05:43 -8.72951 15.88442 36021 ft 506 kts 175°
2026-05-08 05:44 -8.79961 15.89205 36020 ft 506 kts 175°
2026-05-08 05:44 -8.86974 15.89968 36020 ft 506 kts 175°
2026-05-08 05:45 -8.93978 15.90731 36018 ft 506 kts 175°
2026-05-08 05:45 -9.00944 15.91490 36019 ft 506 kts 175°
2026-05-08 05:46 -9.07955 15.92255 36013 ft 506 kts 175°
2026-05-08 05:46 -9.14966 15.93020 36026 ft 506 kts 175°
2026-05-08 05:47 -9.21963 15.93783 36021 ft 505 kts 175°
2026-05-08 05:47 -9.28903 15.94540 36018 ft 505 kts 175°
2026-05-08 05:48 -9.35899 15.95304 36016 ft 505 kts 175°
2026-05-08 05:48 -9.42892 15.96067 36014 ft 504 kts 175°
2026-05-08 05:49 -9.49867 15.96830 36019 ft 504 kts 175°
2026-05-08 05:49 -9.56847 15.97595 36018 ft 504 kts 175°
2026-05-08 05:50 -9.63828 15.98360 36017 ft 504 kts 175°
2026-05-08 05:50 -9.70797 15.99123 36017 ft 504 kts 175°
2026-05-08 05:51 -9.77728 15.99883 36015 ft 504 kts 175°
2026-05-08 05:51 -9.84711 16.00650 36021 ft 504 kts 176°
2026-05-08 05:52 -9.91709 16.01417 36026 ft 505 kts 176°
2026-05-08 05:52 -9.98696 16.02183 36028 ft 505 kts 176°
2026-05-08 05:53 -10.05651 16.02947 36035 ft 505 kts 176°
2026-05-08 05:53 -10.12651 16.03729 36035 ft 506 kts 175°
2026-05-08 05:54 -10.19647 16.04573 36048 ft 505 kts 175°
2026-05-08 05:54 -10.26636 16.05415 36044 ft 505 kts 176°
2026-05-08 05:55 -10.33618 16.06249 36051 ft 505 kts 176°
2026-05-08 05:55 -10.40588 16.07080 36041 ft 504 kts 176°
2026-05-08 05:56 -10.47569 16.07913 36048 ft 505 kts 176°
2026-05-08 05:56 -10.54499 16.08741 36047 ft 505 kts 176°
2026-05-08 05:57 -10.61479 16.09575 36053 ft 505 kts 176°
2026-05-08 05:57 -10.68478 16.10412 36054 ft 505 kts 176°
2026-05-08 05:58 -10.75462 16.11247 36060 ft 505 kts 176°
2026-05-08 05:58 -10.82406 16.12078 36060 ft 505 kts 176°
2026-05-08 05:59 -10.89403 16.12916 36060 ft 506 kts 176°
2026-05-08 05:59 -10.96408 16.13714 36051 ft 507 kts 177°
2026-05-08 06:00 -11.03448 16.14434 36059 ft 508 kts 177°
2026-05-08 06:00 -11.10459 16.15162 36070 ft 509 kts 177°
2026-05-08 06:01 -11.17514 16.15904 36080 ft 510 kts 177°
2026-05-08 06:01 -11.24582 16.16649 36082 ft 510 kts 177°
2026-05-08 06:02 -11.31646 16.17395 36090 ft 510 kts 177°
2026-05-08 06:02 -11.38695 16.18138 36086 ft 510 kts 177°
2026-05-08 06:03 -11.45755 16.18884 36081 ft 509 kts 177°
2026-05-08 06:03 -11.52762 16.19624 36081 ft 509 kts 177°
2026-05-08 06:04 -11.59807 16.20368 36078 ft 509 kts 178°
2026-05-08 06:04 -11.66848 16.21111 36075 ft 509 kts 177°
2026-05-08 06:05 -11.73907 16.21858 36077 ft 509 kts 177°
2026-05-08 06:05 -11.80962 16.22604 36081 ft 509 kts 177°
2026-05-08 06:06 -11.87983 16.23348 36083 ft 510 kts 177°
2026-05-08 06:06 -11.95049 16.24096 36090 ft 510 kts 177°
2026-05-08 06:07 -12.02101 16.24844 36089 ft 510 kts 177°
2026-05-08 06:07 -12.09162 16.25593 36089 ft 510 kts 177°
2026-05-08 06:08 -12.16222 16.26342 36085 ft 509 kts 177°
2026-05-08 06:08 -12.23286 16.27090 36085 ft 509 kts 177°
2026-05-08 06:09 -12.30334 16.27853 36077 ft 509 kts 177°
2026-05-08 06:09 -12.37390 16.28630 36081 ft 509 kts 177°
2026-05-08 06:10 -12.44390 16.29398 36084 ft 509 kts 177°
2026-05-08 06:10 -12.51440 16.30169 36088 ft 510 kts 177°
2026-05-08 06:11 -12.58489 16.30943 36090 ft 510 kts 177°
2026-05-08 06:11 -12.65552 16.31718 36091 ft 510 kts 177°
2026-05-08 06:12 -12.72618 16.32493 36094 ft 510 kts 177°
2026-05-08 06:12 -12.79682 16.33268 36091 ft 510 kts 177°
2026-05-08 06:13 -12.86741 16.34044 36092 ft 510 kts 177°
2026-05-08 06:13 -12.93752 16.34815 36094 ft 510 kts 177°
2026-05-08 06:14 -13.00810 16.35591 36091 ft 510 kts 178°
2026-05-08 06:14 -13.07886 16.36370 36093 ft 510 kts 178°
2026-05-08 06:15 -13.13755 16.37016 36089 ft 510 kts 178°
2026-05-08 06:15 -13.20822 16.37794 36092 ft 511 kts 178°
2026-05-08 06:16 -13.27895 16.38574 36091 ft 511 kts 178°
2026-05-08 06:16 -13.34965 16.39354 36088 ft 511 kts 178°
2026-05-08 06:17 -13.45591 16.40526 36089 ft 512 kts 178°
2026-05-08 06:17 -13.52678 16.41309 36091 ft 512 kts 178°
2026-05-08 06:18 -13.59732 16.42088 36094 ft 512 kts 178°
2026-05-08 06:18 -13.66838 16.42875 36096 ft 512 kts 178°
2026-05-08 06:19 -13.73939 16.43660 36092 ft 513 kts 178°
2026-05-08 06:19 -13.81043 16.44447 36089 ft 513 kts 178°
2026-05-08 06:20 -13.88138 16.45234 36086 ft 512 kts 178°
2026-05-08 06:20 -13.95183 16.46014 36087 ft 512 kts 178°
2026-05-08 06:21 -14.02281 16.46802 36088 ft 512 kts 178°
2026-05-08 06:21 -14.09361 16.47587 36081 ft 512 kts 178°
2026-05-08 06:22 -14.16450 16.48375 36084 ft 512 kts 178°
2026-05-08 06:22 -14.23528 16.49161 36086 ft 512 kts 178°
2026-05-08 06:23 -14.30580 16.49946 36080 ft 512 kts 178°
2026-05-08 06:23 -14.37676 16.50736 36090 ft 512 kts 178°
2026-05-08 06:24 -14.44756 16.51524 36087 ft 512 kts 178°
2026-05-08 06:24 -14.51844 16.52313 36091 ft 512 kts 178°
2026-05-08 06:25 -14.58890 16.53099 36087 ft 512 kts 178°
2026-05-08 06:25 -14.65985 16.53890 36082 ft 512 kts 178°
2026-05-08 06:26 -14.73083 16.54683 36078 ft 512 kts 178°
2026-05-08 06:26 -14.80171 16.55475 36076 ft 512 kts 178°
2026-05-08 06:27 -14.87252 16.56266 36080 ft 512 kts 178°
2026-05-08 06:27 -14.94289 16.57053 36073 ft 511 kts 178°
2026-05-08 06:28 -15.01373 16.57845 36077 ft 512 kts 178°
2026-05-08 06:28 -15.08454 16.58639 36073 ft 512 kts 178°
2026-05-08 06:29 -15.15553 16.59435 36082 ft 512 kts 178°
2026-05-08 06:29 -15.22637 16.60232 36077 ft 512 kts 178°
2026-05-08 06:30 -15.29694 16.61041 36079 ft 512 kts 178°
2026-05-08 06:30 -15.36777 16.61853 36099 ft 512 kts 178°
2026-05-08 06:31 -15.43860 16.62663 36097 ft 512 kts 178°
2026-05-08 06:31 -15.50940 16.63473 36082 ft 511 kts 178°
2026-05-08 06:32 -15.58023 16.64283 36078 ft 511 kts 178°
2026-05-08 06:32 -15.65096 16.65093 36085 ft 511 kts 178°
2026-05-08 06:33 -15.72122 16.65899 36083 ft 511 kts 179°
2026-05-08 06:33 -15.79181 16.66709 36083 ft 511 kts 179°
2026-05-08 06:34 -15.86245 16.67520 36079 ft 511 kts 179°
2026-05-08 06:34 -15.93319 16.68332 36077 ft 510 kts 179°
2026-05-08 06:35 -16.00372 16.69144 36072 ft 510 kts 179°
2026-05-08 06:35 -16.07436 16.69956 36079 ft 510 kts 179°
2026-05-08 06:36 -16.14491 16.70768 36081 ft 510 kts 179°
2026-05-08 06:36 -16.21552 16.71582 36078 ft 510 kts 179°
2026-05-08 06:37 -16.28562 16.72390 36078 ft 510 kts 179°
2026-05-08 06:37 -16.35621 16.73205 36077 ft 509 kts 179°
2026-05-08 06:38 -16.42636 16.74015 36084 ft 509 kts 179°
2026-05-08 06:38 -16.49683 16.74829 36086 ft 509 kts 179°
2026-05-08 06:39 -16.56728 16.75644 36085 ft 509 kts 179°
2026-05-08 06:39 -16.63762 16.76458 36084 ft 508 kts 179°
2026-05-08 06:40 -16.70799 16.77273 36101 ft 508 kts 179°
2026-05-08 06:40 -16.77826 16.78087 36096 ft 508 kts 179°
2026-05-08 06:41 -16.84853 16.78902 36095 ft 508 kts 179°
2026-05-08 06:41 -16.91877 16.79717 36095 ft 507 kts 179°
2026-05-08 06:42 -16.98899 16.80533 36099 ft 507 kts 179°
2026-05-08 06:42 -17.05870 16.81343 36111 ft 507 kts 179°
2026-05-08 06:43 -17.12888 16.82159 36112 ft 507 kts 179°
2026-05-08 06:43 -17.19905 16.82976 36113 ft 507 kts 179°
2026-05-08 06:44 -17.26913 16.83793 36108 ft 506 kts 179°
2026-05-08 06:44 -17.33920 16.84610 36102 ft 506 kts 179°
2026-05-08 06:45 -17.40886 16.85422 36118 ft 506 kts 180°
2026-05-08 06:45 -17.47901 16.86233 36107 ft 506 kts 180°
2026-05-08 06:46 -17.54894 16.87040 36105 ft 506 kts 180°
2026-05-08 06:46 -17.61890 16.87850 36110 ft 506 kts 180°
2026-05-08 06:47 -17.68895 16.88661 36112 ft 505 kts 180°
2026-05-08 06:47 -17.75871 16.89470 36119 ft 505 kts 180°
2026-05-08 06:48 -17.82853 16.90280 36110 ft 505 kts 180°
2026-05-08 06:48 -17.89852 16.91093 36105 ft 505 kts 180°
2026-05-08 06:49 -17.96844 16.91905 36122 ft 505 kts 180°
2026-05-08 06:49 -18.03822 16.92717 36119 ft 505 kts 180°
2026-05-08 06:50 -18.10761 16.93525 36124 ft 505 kts 180°
2026-05-08 06:50 -18.17742 16.94338 36113 ft 505 kts 180°
2026-05-08 06:51 -18.24729 16.95152 36113 ft 505 kts 180°
2026-05-08 06:51 -18.31713 16.95967 36118 ft 505 kts 180°
2026-05-08 06:52 -18.38695 16.96782 36129 ft 505 kts 180°
2026-05-08 06:52 -18.45672 16.97598 36126 ft 504 kts 180°
2026-05-08 06:53 -18.52608 16.98409 36132 ft 504 kts 180°
2026-05-08 06:53 -18.59592 16.99226 36130 ft 504 kts 180°
2026-05-08 06:54 -18.66575 17.00044 36133 ft 504 kts 180°
2026-05-08 06:54 -18.73536 17.00861 36136 ft 504 kts 180°
2026-05-08 06:55 -18.80519 17.01680 36136 ft 504 kts 180°
2026-05-08 06:55 -18.87442 17.02494 36139 ft 504 kts 180°
2026-05-08 06:56 -18.94416 17.03313 36136 ft 504 kts 180°
2026-05-08 06:56 -19.01380 17.04132 36143 ft 504 kts 180°
2026-05-08 06:57 -19.08346 17.04952 36136 ft 504 kts 180°
2026-05-08 06:57 -19.15311 17.05773 36130 ft 504 kts 180°
2026-05-08 06:58 -19.22279 17.06614 36128 ft 504 kts 180°
2026-05-08 06:58 -19.29247 17.07468 36124 ft 503 kts 180°
2026-05-08 06:59 -19.36170 17.08313 36131 ft 504 kts 180°
2026-05-08 06:59 -19.43152 17.09166 36121 ft 503 kts 180°
2026-05-08 07:00 -19.50116 17.10017 36122 ft 503 kts 180°
2026-05-08 07:00 -19.57032 17.10862 36119 ft 503 kts 180°
2026-05-08 07:01 -19.63989 17.11713 36139 ft 503 kts 181°
2026-05-08 07:01 -19.70944 17.12565 36117 ft 503 kts 181°
2026-05-08 07:02 -19.77905 17.13418 36115 ft 503 kts 181°
2026-05-08 07:02 -19.84856 17.14270 36114 ft 503 kts 181°
2026-05-08 07:03 -19.91809 17.15125 36117 ft 503 kts 181°
2026-05-08 07:03 -19.97585 17.15835 36124 ft 503 kts 181°
2026-05-08 07:04 -20.05683 17.16831 36126 ft 503 kts 181°
2026-05-08 07:04 -20.11463 17.17543 36121 ft 503 kts 181°
2026-05-08 07:05 -20.18456 17.18404 36124 ft 502 kts 181°
2026-05-08 07:05 -20.25360 17.19256 36123 ft 502 kts 181°
2026-05-08 07:06 -20.32309 17.20113 36138 ft 502 kts 181°
2026-05-08 07:06 -20.39253 17.20971 36136 ft 502 kts 181°
2026-05-08 07:07 -20.46195 17.21830 36143 ft 502 kts 181°
2026-05-08 07:07 -20.53123 17.22688 36146 ft 501 kts 181°
2026-05-08 07:08 -20.60041 17.23545 36177 ft 501 kts 181°
2026-05-08 07:08 -20.66925 17.24398 36164 ft 500 kts 181°
2026-05-08 07:09 -20.73841 17.25257 36158 ft 499 kts 181°
2026-05-08 07:09 -20.80745 17.26114 36155 ft 499 kts 181°
2026-05-08 07:10 -20.87653 17.26972 36150 ft 498 kts 181°
2026-05-08 07:10 -20.94541 17.27827 36168 ft 498 kts 181°
2026-05-08 07:11 -21.01432 17.28683 36160 ft 498 kts 181°
2026-05-08 07:11 -21.08310 17.29538 36158 ft 498 kts 181°
2026-05-08 07:12 -21.15186 17.30394 36159 ft 497 kts 181°
2026-05-08 07:12 -21.22029 17.31247 36155 ft 497 kts 181°
2026-05-08 07:13 -21.28902 17.32104 36152 ft 497 kts 181°
2026-05-08 07:13 -21.35783 17.32963 36145 ft 497 kts 181°
2026-05-08 07:14 -21.42602 17.33815 36146 ft 497 kts 181°
2026-05-08 07:14 -21.49487 17.34676 36147 ft 497 kts 181°
2026-05-08 07:15 -21.56368 17.35538 36161 ft 497 kts 181°
2026-05-08 07:15 -21.63236 17.36398 36160 ft 497 kts 181°
2026-05-08 07:16 -21.70069 17.37255 36149 ft 497 kts 181°
2026-05-08 07:16 -21.76984 17.38124 36145 ft 497 kts 181°
2026-05-08 07:17 -21.83805 17.38980 36149 ft 497 kts 181°
2026-05-08 07:17 -21.90682 17.39845 36154 ft 497 kts 182°
2026-05-08 07:18 -21.97567 17.40712 36147 ft 497 kts 182°
2026-05-08 07:18 -22.04400 17.41574 36143 ft 497 kts 182°
2026-05-08 07:19 -22.11284 17.42443 36143 ft 497 kts 182°
2026-05-08 07:19 -22.18148 17.43309 36177 ft 498 kts 182°
2026-05-08 07:20 -22.25030 17.44180 36198 ft 497 kts 182°
2026-05-08 07:20 -22.31923 17.45053 36225 ft 497 kts 182°
2026-05-08 07:21 -22.38782 17.45922 36250 ft 496 kts 182°
2026-05-08 07:21 -22.45609 17.46787 36244 ft 496 kts 182°
2026-05-08 07:22 -22.52465 17.47752 36145 ft 498 kts 180°
2026-05-08 07:22 -22.59314 17.48923 36139 ft 497 kts 180°
2026-05-08 07:23 -22.66155 17.50070 36126 ft 497 kts 180°
2026-05-08 07:23 -22.72989 17.51195 36125 ft 496 kts 180°
2026-05-08 07:24 -22.79815 17.52315 36136 ft 496 kts 180°
2026-05-08 07:24 -22.86644 17.53438 36131 ft 495 kts 180°
2026-05-08 07:25 -22.93415 17.54552 36128 ft 495 kts 180°
2026-05-08 07:26 -23.03635 17.56235 36128 ft 494 kts 180°
2026-05-08 07:26 -23.10433 17.57357 36137 ft 494 kts 181°
2026-05-08 07:27 -23.17229 17.58479 36144 ft 493 kts 181°
2026-05-08 07:27 -23.24018 17.59601 36124 ft 493 kts 181°
2026-05-08 07:28 -23.30798 17.60718 36136 ft 492 kts 181°
2026-05-08 07:28 -23.37531 17.61824 36189 ft 492 kts 181°
2026-05-08 07:29 -23.44305 17.62939 36150 ft 492 kts 181°
2026-05-08 07:29 -23.51077 17.64054 36149 ft 491 kts 181°
2026-05-08 07:30 -23.57835 17.65165 36145 ft 491 kts 181°
2026-05-08 07:30 -23.64588 17.66276 36144 ft 490 kts 181°
2026-05-08 07:31 -23.71345 17.67388 36163 ft 491 kts 181°
2026-05-08 07:31 -23.78111 17.68504 36159 ft 490 kts 181°
2026-05-08 07:32 -23.84805 17.69593 36152 ft 490 kts 181°
2026-05-08 07:32 -23.91551 17.70689 36150 ft 489 kts 181°
2026-05-08 07:33 -23.98296 17.71787 36181 ft 489 kts 181°
2026-05-08 07:33 -24.05039 17.72886 36156 ft 489 kts 181°
2026-05-08 07:34 -24.11770 17.73986 36152 ft 489 kts 181°
2026-05-08 07:34 -24.18465 17.75080 36144 ft 489 kts 181°
2026-05-08 07:35 -24.25240 17.76188 36143 ft 489 kts 181°
2026-05-08 07:35 -24.31941 17.77286 36143 ft 489 kts 181°
2026-05-08 07:36 -24.38663 17.78388 36149 ft 489 kts 181°
2026-05-08 07:36 -24.45411 17.79496 36147 ft 489 kts 181°
2026-05-08 07:37 -24.52119 17.80595 36150 ft 489 kts 181°
2026-05-08 07:37 -24.58851 17.81673 36162 ft 490 kts 182°
2026-05-08 07:38 -24.65587 17.82752 36161 ft 490 kts 181°
2026-05-08 07:38 -24.72342 17.83838 36162 ft 489 kts 181°
2026-05-08 07:39 -24.79084 17.84925 36161 ft 489 kts 181°
2026-05-08 07:39 -24.85824 17.86011 36207 ft 489 kts 182°
2026-05-08 07:40 -24.92577 17.87102 36173 ft 490 kts 182°
2026-05-08 07:40 -24.99326 17.88193 36169 ft 490 kts 182°
2026-05-08 07:41 -25.06072 17.89288 36166 ft 490 kts 181°
2026-05-08 07:41 -25.12784 17.90388 36167 ft 490 kts 181°
2026-05-08 07:42 -25.19542 17.91494 36184 ft 491 kts 182°
2026-05-08 07:42 -25.26301 17.92603 36180 ft 490 kts 182°
2026-05-08 07:43 -25.33016 17.93705 36174 ft 490 kts 182°
2026-05-08 07:43 -25.39753 17.94811 36168 ft 490 kts 182°
2026-05-08 07:44 -25.46504 17.95921 36177 ft 490 kts 182°
2026-05-08 07:44 -25.53256 17.97033 36182 ft 489 kts 182°
2026-05-08 07:45 -25.59941 17.98136 36175 ft 488 kts 182°
2026-05-08 07:45 -25.66655 17.99243 36174 ft 488 kts 182°
2026-05-08 07:46 -25.73381 18.00353 36226 ft 488 kts 181°
2026-05-08 07:46 -25.80113 18.01467 36182 ft 488 kts 181°
2026-05-08 07:47 -25.86832 18.02580 36176 ft 488 kts 181°
2026-05-08 07:47 -25.93550 18.03693 36173 ft 487 kts 181°
2026-05-08 07:48 -26.00219 18.04799 36172 ft 487 kts 181°
2026-05-08 07:48 -26.06928 18.05913 36169 ft 488 kts 181°
2026-05-08 07:49 -26.13640 18.07030 36169 ft 487 kts 181°
2026-05-08 07:49 -26.20364 18.08150 36160 ft 487 kts 181°
2026-05-08 07:50 -26.27061 18.09266 36158 ft 487 kts 181°
2026-05-08 07:50 -26.33737 18.10379 36169 ft 488 kts 181°
2026-05-08 07:51 -26.40444 18.11501 36165 ft 487 kts 181°
2026-05-08 07:51 -26.47168 18.12627 36165 ft 487 kts 181°
2026-05-08 07:52 -26.52733 18.13559 36168 ft 486 kts 181°
2026-05-08 07:52 -26.59432 18.14682 36206 ft 486 kts 181°
2026-05-08 07:53 -26.66133 18.15807 36169 ft 486 kts 181°
2026-05-08 07:53 -26.72823 18.16931 36169 ft 486 kts 181°
2026-05-08 07:54 -26.79509 18.18056 36164 ft 485 kts 181°
2026-05-08 07:54 -26.86194 18.19182 36163 ft 485 kts 181°
2026-05-08 07:55 -26.92836 18.20301 36165 ft 485 kts 181°
2026-05-08 07:55 -26.99512 18.21429 36166 ft 485 kts 181°
2026-05-08 07:56 -27.06188 18.22557 36160 ft 484 kts 181°
2026-05-08 07:56 -27.12847 18.23685 36159 ft 484 kts 181°
2026-05-08 07:57 -27.19508 18.24814 36151 ft 484 kts 181°
2026-05-08 07:57 -27.26166 18.25944 36147 ft 484 kts 181°
2026-05-08 07:58 -27.32820 18.27074 36137 ft 483 kts 181°
2026-05-08 07:58 -27.39480 18.28207 36137 ft 483 kts 181°
2026-05-08 07:59 -27.46127 18.29338 36141 ft 484 kts 180°
2026-05-08 07:59 -27.52745 18.30234 36145 ft 476 kts 185°
2026-05-08 08:00 -27.59357 18.30758 36137 ft 477 kts 185°
2026-05-08 08:00 -27.65973 18.31306 36135 ft 476 kts 185°
2026-05-08 08:01 -27.72596 18.31851 36171 ft 476 kts 185°
2026-05-08 08:01 -27.79197 18.32394 36140 ft 476 kts 185°
2026-05-08 08:02 -27.85808 18.32937 36137 ft 476 kts 185°
2026-05-08 08:02 -27.92410 18.33479 36136 ft 475 kts 185°
2026-05-08 08:03 -27.99010 18.34019 36122 ft 475 kts 185°
2026-05-08 08:03 -28.05598 18.34557 36134 ft 474 kts 185°
2026-05-08 08:04 -28.12189 18.35123 36136 ft 476 kts 182°
2026-05-08 08:04 -28.18733 18.36408 36133 ft 481 kts 178°
2026-05-08 08:05 -28.25326 18.37783 36130 ft 481 kts 179°
2026-05-08 08:05 -28.31907 18.39154 36145 ft 480 kts 178°
2026-05-08 08:06 -28.38507 18.40538 36138 ft 480 kts 178°
2026-05-08 08:07 -28.51528 18.43275 36131 ft 479 kts 178°
2026-05-08 08:07 -28.58076 18.44654 36148 ft 479 kts 178°
2026-05-08 08:07 -28.61365 18.45343 35580 ft 488 kts 179°
2026-05-08 08:08 -28.64775 18.46043 35060 ft 494 kts 178°
2026-05-08 08:08 -28.68105 18.46753 35050 ft 482 kts 178°
2026-05-08 08:08 -28.71381 18.47460 35214 ft 478 kts 178°
2026-05-08 08:08 -28.74673 18.48159 35445 ft 480 kts 178°
2026-05-08 08:09 -28.77962 18.48852 35693 ft 481 kts 178°
2026-05-08 08:09 -28.81246 18.49547 35937 ft 481 kts 178°
2026-05-08 08:09 -28.84532 18.50244 36137 ft 479 kts 178°
2026-05-08 08:10 -28.91078 18.51634 36157 ft 478 kts 178°
2026-05-08 08:10 -28.97596 18.53015 36167 ft 478 kts 178°
2026-05-08 08:11 -29.04141 18.54406 36162 ft 478 kts 178°
2026-05-08 08:11 -29.10687 18.55799 36170 ft 477 kts 178°
2026-05-08 08:12 -29.17178 18.57186 36146 ft 473 kts 178°
2026-05-08 08:12 -29.23631 18.58563 36126 ft 470 kts 178°
2026-05-08 08:13 -29.30022 18.59926 36176 ft 473 kts 178°
2026-05-08 08:13 -29.36519 18.61310 36181 ft 476 kts 177°
2026-05-08 08:14 -29.43020 18.62706 36172 ft 475 kts 177°
2026-05-08 08:14 -29.49520 18.64101 36173 ft 475 kts 177°
2026-05-08 08:15 -29.56017 18.65496 36170 ft 475 kts 178°
2026-05-08 08:15 -29.62520 18.66894 36230 ft 475 kts 177°
2026-05-08 08:16 -29.69013 18.68292 36188 ft 475 kts 177°
2026-05-08 08:16 -29.75525 18.69696 36188 ft 475 kts 177°
2026-05-08 08:17 -29.82019 18.71098 36191 ft 475 kts 177°
2026-05-08 08:17 -29.88522 18.72503 36193 ft 474 kts 177°
2026-05-08 08:18 -29.94968 18.73899 36196 ft 474 kts 177°
2026-05-08 08:18 -30.01443 18.75302 36194 ft 474 kts 177°
2026-05-08 08:19 -30.07930 18.76710 36191 ft 474 kts 177°
2026-05-08 08:19 -30.14406 18.78117 36231 ft 474 kts 177°
2026-05-08 08:20 -30.20910 18.79531 36176 ft 476 kts 177°
2026-05-08 08:20 -30.27419 18.80950 36169 ft 476 kts 177°
2026-05-08 08:21 -30.33930 18.82370 36173 ft 476 kts 177°
2026-05-08 08:21 -30.40443 18.83794 36195 ft 476 kts 177°
2026-05-08 08:22 -30.46965 18.85220 36181 ft 477 kts 176°
2026-05-08 08:22 -30.53460 18.86642 36182 ft 477 kts 176°
2026-05-08 08:23 -30.59984 18.88075 36175 ft 477 kts 176°
2026-05-08 08:23 -30.66506 18.89507 36213 ft 477 kts 176°
2026-05-08 08:24 -30.73048 18.90944 36177 ft 478 kts 176°
2026-05-08 08:24 -30.79578 18.92384 36174 ft 478 kts 176°
2026-05-08 08:25 -30.86117 18.93827 36170 ft 478 kts 176°
2026-05-08 08:25 -30.92651 18.95270 36196 ft 478 kts 176°
2026-05-08 08:26 -30.99198 18.96718 36175 ft 478 kts 176°
2026-05-08 08:26 -31.05744 18.98168 36172 ft 478 kts 176°
2026-05-08 08:27 -31.12237 18.99609 36162 ft 477 kts 176°
2026-05-08 08:27 -31.18799 19.01065 36194 ft 477 kts 175°
2026-05-08 08:28 -31.25288 19.02508 36174 ft 478 kts 175°
2026-05-08 08:28 -31.31823 19.03965 36172 ft 477 kts 175°
2026-05-08 08:29 -31.38363 19.05424 36170 ft 477 kts 175°
2026-05-08 08:29 -31.44872 19.06877 36172 ft 477 kts 175°
2026-05-08 08:30 -31.51400 19.08338 36173 ft 477 kts 175°
2026-05-08 08:30 -31.61169 19.10527 36167 ft 476 kts 175°
2026-05-08 08:31 -31.67635 19.11979 36164 ft 476 kts 175°
2026-05-08 08:31 -31.74152 19.13442 36149 ft 478 kts 174°
2026-05-08 08:32 -31.80685 19.14914 36148 ft 478 kts 174°
2026-05-08 08:32 -31.87234 19.16390 36157 ft 479 kts 174°
2026-05-08 08:33 -31.93786 19.17870 36159 ft 479 kts 174°
2026-05-08 08:33 -32.00341 19.19352 36160 ft 480 kts 174°
2026-05-08 08:34 -32.06848 19.20826 36168 ft 479 kts 174°
2026-05-08 08:34 -32.13411 19.22314 36164 ft 480 kts 174°
2026-05-08 08:35 -32.19961 19.23803 36187 ft 480 kts 174°
2026-05-08 08:35 -32.26538 19.25297 36171 ft 481 kts 174°
2026-05-08 08:36 -32.33111 19.26793 36186 ft 480 kts 174°
2026-05-08 08:36 -32.39678 19.28290 36185 ft 481 kts 174°
2026-05-08 08:37 -32.46240 19.29787 36181 ft 481 kts 174°
2026-05-08 08:37 -32.52816 19.31291 36174 ft 480 kts 174°
2026-05-08 08:38 -32.59311 19.32780 36038 ft 475 kts 174°
2026-05-08 08:38 -32.61436 19.33269 35808 ft 472 kts 174°
2026-05-08 08:38 -32.64662 19.34009 35110 ft 473 kts 174°
2026-05-08 08:39 -32.67895 19.34748 34138 ft 478 kts 173°
2026-05-08 08:39 -32.72269 19.35749 32795 ft 481 kts 172°
2026-05-08 08:39 -32.74477 19.36258 32360 ft 477 kts 172°
2026-05-08 08:39 -32.77696 19.37002 31971 ft 467 kts 172°
2026-05-08 08:40 -32.80866 19.37718 31422 ft 459 kts 174°
2026-05-08 08:40 -32.84022 19.38164 30832 ft 454 kts 176°
2026-05-08 08:40 -32.87151 19.38579 30250 ft 450 kts 176°
2026-05-08 08:40 -32.90215 19.38998 29619 ft 445 kts 176°
2026-05-08 08:41 -32.93312 19.39427 29050 ft 439 kts 176°
2026-05-08 08:41 -32.96302 19.39838 28485 ft 434 kts 176°
2026-05-08 08:41 -32.99271 19.40246 27850 ft 425 kts 175°
2026-05-08 08:41 -33.02191 19.40648 27355 ft 417 kts 175°
2026-05-08 08:42 -33.05042 19.41040 26900 ft 406 kts 175°
2026-05-08 08:42 -33.07781 19.41418 26709 ft 388 kts 176°
2026-05-08 08:42 -33.10401 19.41780 26527 ft 370 kts 176°
2026-05-08 08:42 -33.12919 19.42126 26056 ft 362 kts 176°
2026-05-08 08:43 -33.15417 19.42466 25410 ft 360 kts 176°
2026-05-08 08:43 -33.17903 19.42805 24775 ft 358 kts 176°
2026-05-08 08:43 -33.20360 19.43142 24211 ft 354 kts 175°
2026-05-08 08:43 -33.22798 19.43349 23549 ft 349 kts 188°
2026-05-08 08:44 -33.25123 19.42650 22796 ft 343 kts 209°
2026-05-08 08:44 -33.27028 19.40988 22341 ft 336 kts 230°
2026-05-08 08:44 -33.28451 19.38800 22024 ft 337 kts 233°
2026-05-08 08:44 -33.29870 19.36580 21580 ft 336 kts 233°
2026-05-08 08:45 -33.31295 19.34383 21123 ft 332 kts 232°
2026-05-08 08:45 -33.32693 19.32227 20686 ft 330 kts 232°
2026-05-08 08:45 -33.34092 19.30062 20196 ft 329 kts 233°
2026-05-08 08:45 -33.35475 19.27916 19755 ft 327 kts 233°
2026-05-08 08:46 -33.36868 19.25752 19290 ft 325 kts 233°
2026-05-08 08:46 -33.38220 19.23647 19088 ft 312 kts 233°
2026-05-08 08:46 -33.39511 19.21635 18885 ft 299 kts 233°
2026-05-08 08:46 -33.40766 19.19676 18410 ft 296 kts 233°
2026-05-08 08:47 -33.42083 19.17791 17833 ft 294 kts 226°
2026-05-08 08:47 -33.43489 19.16036 17278 ft 292 kts 227°
2026-05-08 08:47 -33.44884 19.14271 16712 ft 290 kts 227°
2026-05-08 08:47 -33.46265 19.12516 16285 ft 288 kts 227°
2026-05-08 08:48 -33.47639 19.10767 15965 ft 288 kts 227°
2026-05-08 08:48 -33.49010 19.09020 15728 ft 287 kts 227°
2026-05-08 08:48 -33.50358 19.07304 15479 ft 286 kts 227°
2026-05-08 08:48 -33.51721 19.05568 15318 ft 286 kts 227°
2026-05-08 08:49 -33.53099 19.03812 15158 ft 283 kts 227°
2026-05-08 08:49 -33.54445 19.02096 15147 ft 283 kts 227°
2026-05-08 08:49 -33.55777 19.00397 15152 ft 284 kts 227°
2026-05-08 08:49 -33.57145 18.98652 15154 ft 284 kts 227°
2026-05-08 08:50 -33.58498 18.96924 15109 ft 285 kts 227°
2026-05-08 08:50 -33.59858 18.95189 14895 ft 287 kts 227°
2026-05-08 08:50 -33.61211 18.93459 14490 ft 288 kts 227°
2026-05-08 08:50 -33.62568 18.91723 14166 ft 281 kts 227°
2026-05-08 08:51 -33.63904 18.90015 14026 ft 280 kts 227°
2026-05-08 08:51 -33.65242 18.88302 13794 ft 281 kts 227°
2026-05-08 08:51 -33.66573 18.86597 13544 ft 280 kts 227°
2026-05-08 08:51 -33.67903 18.84894 13308 ft 279 kts 227°
2026-05-08 08:52 -33.69230 18.83194 13093 ft 278 kts 227°
2026-05-08 08:52 -33.70549 18.81503 12833 ft 278 kts 227°
2026-05-08 08:52 -33.71872 18.79807 12584 ft 277 kts 227°
2026-05-08 08:52 -33.73186 18.78120 12360 ft 276 kts 227°
2026-05-08 08:53 -33.74491 18.76444 12102 ft 275 kts 227°
2026-05-08 08:53 -33.75801 18.74761 11884 ft 275 kts 227°
2026-05-08 08:53 -33.77106 18.73086 11656 ft 275 kts 227°
2026-05-08 08:53 -33.78415 18.71401 11408 ft 275 kts 227°
2026-05-08 08:54 -33.79919 18.70066 11194 ft 275 kts 201°
2026-05-08 08:54 -33.81774 18.69670 10938 ft 272 kts 174°
2026-05-08 08:54 -33.83576 18.70156 10794 ft 271 kts 163°
2026-05-08 08:54 -33.85392 18.70814 10669 ft 272 kts 163°
2026-05-08 08:55 -33.87212 18.71466 10508 ft 272 kts 163°
2026-05-08 08:55 -33.89028 18.72085 10336 ft 271 kts 164°
2026-05-08 08:55 -33.90853 18.72684 10176 ft 271 kts 165°
2026-05-08 08:55 -33.92672 18.73267 10010 ft 271 kts 165°
2026-05-08 08:56 -33.94500 18.73850 9671 ft 272 kts 165°
2026-05-08 08:56 -33.96327 18.74432 9293 ft 270 kts 165°
2026-05-08 08:56 -33.98131 18.75006 8756 ft 268 kts 165°
2026-05-08 08:56 -33.99917 18.75575 8372 ft 262 kts 165°
2026-05-08 08:57 -34.01667 18.76134 8048 ft 261 kts 165°
2026-05-08 08:57 -34.03421 18.76694 7678 ft 258 kts 165°
2026-05-08 08:57 -34.05124 18.77237 7237 ft 255 kts 165°
2026-05-08 08:57 -34.06842 18.77785 6731 ft 255 kts 164°
2026-05-08 08:58 -34.08541 18.78332 6483 ft 250 kts 164°
2026-05-08 08:58 -34.10224 18.78873 6250 ft 249 kts 164°
2026-05-08 08:58 -34.11894 18.79412 6008 ft 248 kts 164°
2026-05-08 08:58 -34.13560 18.79944 5781 ft 247 kts 164°
2026-05-08 08:59 -34.15184 18.80460 5604 ft 235 kts 164°
2026-05-08 08:59 -34.16750 18.80963 5395 ft 232 kts 164°
2026-05-08 08:59 -34.18315 18.81465 5075 ft 233 kts 164°
2026-05-08 08:59 -34.19900 18.81965 4721 ft 236 kts 164°
2026-05-08 09:00 -34.21536 18.82154 4354 ft 241 kts 188°
2026-05-08 09:00 -34.23122 18.81523 4001 ft 244 kts 211°
2026-05-08 09:00 -34.24294 18.80056 3658 ft 247 kts 242°
2026-05-08 09:00 -34.24869 18.78093 3316 ft 249 kts 253°
2026-05-08 09:01 -34.25355 18.76081 3047 ft 247 kts 253°
2026-05-08 09:01 -34.25814 18.74130 2962 ft 233 kts 253°
2026-05-08 09:01 -34.26156 18.72278 2986 ft 224 kts 271°
2026-05-08 09:01 -34.25693 18.70510 3011 ft 223 kts 307°
2026-05-08 09:02 -34.24557 18.69338 2975 ft 212 kts 340°
2026-05-08 09:02 -34.23182 18.68856 2984 ft 203 kts 347°
2026-05-08 09:02 -34.21879 18.68364 3010 ft 193 kts 343°
2026-05-08 09:02 -34.20585 18.67872 2979 ft 197 kts 346°
2026-05-08 09:03 -34.19257 18.67423 2990 ft 198 kts 347°
2026-05-08 09:03 -34.17978 18.67011 3001 ft 182 kts 347°
2026-05-08 09:03 -34.16772 18.66624 2983 ft 177 kts 348°
2026-05-08 09:03 -34.15585 18.66246 2993 ft 175 kts 347°
2026-05-08 09:04 -34.14440 18.65880 2983 ft 166 kts 348°
2026-05-08 09:04 -34.13350 18.65531 3004 ft 157 kts 348°
2026-05-08 09:04 -34.12292 18.65196 2896 ft 157 kts 348°
2026-05-08 09:04 -34.11282 18.64871 2709 ft 149 kts 348°
2026-05-08 09:05 -34.10289 18.64556 2508 ft 147 kts 347°
2026-05-08 09:05 -34.09293 18.64238 2308 ft 146 kts 348°
2026-05-08 09:05 -34.08318 18.63928 2117 ft 147 kts 348°